| time (UTC) | temp C | wind direction | speed KPH | gust KPH | rain 1hr cm | rain 24hr cm | rain mn cm | humidity % | barometer mb |
| 20260508100901 | 13 | 176 | 8.0 | 12.9 | 0.00 | 0.05 | 0.05 | 76 | |
| 20260508100801 | 13 | 175 | 8.0 | 12.9 | 0.00 | 0.05 | 0.05 | 76 | |
| 20260508100722 | 13 | 174 | 8.0 | 12.9 | 0.00 | 0.05 | 0.05 | 76 | |
| 20260508100601 | 13 | 168 | 8.0 | 12.9 | 0.00 | 0.05 | 0.05 | 78 | |
| 20260508100501 | 13 | 166 | 8.0 | 14.5 | 0.00 | 0.05 | 0.05 | 78 | |
| 20260508100422 | 13 | 164 | 8.0 | 14.5 | 0.00 | 0.05 | 0.05 | 78 | |
| 20260508100322 | 13 | 162 | 8.0 | 14.5 | 0.00 | 0.05 | 0.05 | 78 | |
| 20260508100223 | 13 | 160 | 8.0 | 14.5 | 0.00 | 0.05 | 0.05 | 79 | |
| 20260508100001 | 13 | 153 | 8.0 | 14.5 | 0.00 | 0.05 | 0.05 | 79 | |
| 20260508095901 | 13 | 151 | 6.4 | 14.5 | 0.00 | 0.05 | 0.05 | 79 | |
| 20260508095801 | 13 | 151 | 8.0 | 14.5 | 0.00 | 0.05 | 0.05 | 79 | |
| 20260508095722 | 13 | 151 | 8.0 | 14.5 | 0.00 | 0.05 | 0.05 | 79 | |
| 20260508095601 | 13 | 149 | 8.0 | 14.5 | 0.00 | 0.05 | 0.05 | 80 | |
| 20260508095501 | 13 | 150 | 6.4 | 14.5 | 0.00 | 0.05 | 0.05 | 80 | |
| 20260508095401 | 13 | 152 | 6.4 | 14.5 | 0.00 | 0.05 | 0.05 | 81 | |
| 20260508095305 | 13 | 153 | 6.4 | 14.5 | 0.00 | 0.05 | 0.05 | 81 | |
| 20260508095201 | 13 | 155 | 6.4 | 14.5 | 0.00 | 0.05 | 0.05 | 81 | |
| 20260508095101 | 13 | 158 | 6.4 | 14.5 | 0.00 | 0.05 | 0.05 | 81 | |
| 20260508095002 | 13 | 161 | 6.4 | 14.5 | 0.00 | 0.05 | 0.05 | 81 | |
| 20260508094901 | 13 | 157 | 6.4 | 14.5 | 0.00 | 0.05 | 0.05 | 82 | |
| 20260508094801 | 13 | 154 | 4.8 | 14.5 | 0.00 | 0.05 | 0.05 | 82 | |
| 20260508094701 | 13 | 151 | 4.8 | 14.5 | 0.00 | 0.05 | 0.05 | 83 | |
| 20260508094601 | 13 | 156 | 4.8 | 14.5 | 0.00 | 0.05 | 0.05 | 83 | |
| 20260508094501 | 13 | 158 | 4.8 | 11.3 | 0.00 | 0.05 | 0.05 | 84 | |
| 20260508094401 | 13 | 155 | 4.8 | 11.3 | 0.00 | 0.05 | 0.05 | 84 | |
| 20260508094301 | 13 | 155 | 4.8 | 11.3 | 0.00 | 0.05 | 0.05 | 84 | |
| 20260508094201 | 13 | 156 | 4.8 | 11.3 | 0.00 | 0.05 | 0.05 | 85 | |
| 20260508094122 | 13 | 157 | 6.4 | 11.3 | 0.00 | 0.05 | 0.05 | 85 | |
| 20260508094001 | 12 | 160 | 6.4 | 16.1 | 0.00 | 0.05 | 0.05 | 86 | |
| 20260508093923 | 12 | 161 | 6.4 | 16.1 | 0.00 | 0.05 | 0.05 | 86 | |
| 20260508093802 | 12 | 163 | 6.4 | 16.1 | 0.00 | 0.05 | 0.05 | 85 | |
| 20260508093723 | 12 | 164 | 8.0 | 16.1 | 0.00 | 0.05 | 0.05 | 85 | |
| 20260508093601 | 12 | 164 | 8.0 | 16.1 | 0.00 | 0.05 | 0.05 | 86 | |
| 20260508093522 | 12 | 163 | 8.0 | 16.1 | 0.00 | 0.05 | 0.05 | 86 | |
| 20260508093422 | 12 | 165 | 8.0 | 16.1 | 0.00 | 0.05 | 0.05 | 86 | |
| 20260508093301 | 12 | 161 | 8.0 | 16.1 | 0.00 | 0.05 | 0.05 | 86 | |
| 20260508093201 | 12 | 159 | 6.4 | 16.1 | 0.00 | 0.05 | 0.05 | 86 | |
| 20260508093101 | 12 | 157 | 6.4 | 12.9 | 0.00 | 0.05 | 0.05 | 87 | |
| 20260508093022 | 12 | 157 | 6.4 | 12.9 | 0.00 | 0.05 | 0.05 | 87 | |
| 20260508092901 | 12 | 161 | 6.4 | 12.9 | 0.00 | 0.05 | 0.05 | 86 | |
| 20260508092801 | 12 | 161 | 6.4 | 12.9 | 0.00 | 0.05 | 0.05 | 86 | |
| 20260508092701 | 12 | 160 | 6.4 | 12.9 | 0.00 | 0.05 | 0.05 | 87 | |
| 20260508092601 | 12 | 158 | 6.4 | 12.9 | 0.00 | 0.05 | 0.05 | 89 | |
| 20260508092522 | 12 | 156 | 6.4 | 12.9 | 0.00 | 0.05 | 0.05 | 89 | |
| 20260508092401 | 11 | 151 | 6.4 | 12.9 | 0.00 | 0.05 | 0.05 | 89 | |
| 20260508092301 | 11 | 157 | 6.4 | 12.9 | 0.00 | 0.05 | 0.05 | 89 | |
| 20260508092201 | 11 | 159 | 8.0 | 12.9 | 0.00 | 0.05 | 0.05 | 89 | |
| 20260508092101 | 11 | 157 | 6.4 | 12.9 | 0.00 | 0.05 | 0.05 | 89 | |
| 20260508092023 | 11 | 155 | 8.0 | 12.9 | 0.00 | 0.05 | 0.05 | 89 | |
| 20260508091922 | 11 | 151 | 6.4 | 12.9 | 0.00 | 0.05 | 0.05 | 89 | |
| 20260508091801 | 11 | 151 | 6.4 | 11.3 | 0.00 | 0.05 | 0.05 | 89 | |
| 20260508091701 | 11 | 149 | 6.4 | 11.3 | 0.00 | 0.05 | 0.05 | 89 | |
| 20260508091602 | 11 | 150 | 6.4 | 11.3 | 0.00 | 0.05 | 0.05 | 89 | |
| 20260508091501 | 11 | 151 | 6.4 | 11.3 | 0.00 | 0.05 | 0.05 | 89 | |
| 20260508091401 | 11 | 153 | 6.4 | 11.3 | 0.00 | 0.05 | 0.05 | 90 | |
| 20260508091301 | 11 | 151 | 4.8 | 11.3 | 0.00 | 0.05 | 0.05 | 90 | |
| 20260508091222 | 11 | 150 | 4.8 | 11.3 | 0.00 | 0.05 | 0.05 | 90 | |
| 20260508091101 | 11 | 150 | 4.8 | 11.3 | 0.00 | 0.05 | 0.05 | 90 | |
| 20260508091003 | 11 | 152 | 4.8 | 11.3 | 0.00 | 0.05 | 0.05 | 91 | |
| 20260508090901 | 11 | 156 | 4.8 | 11.3 | 0.00 | 0.05 | 0.05 | 91 | |
| 20260508090801 | 11 | 155 | 6.4 | 11.3 | 0.00 | 0.05 | 0.05 | 91 | |
| 20260508090701 | 11 | 154 | 6.4 | 12.9 | 0.00 | 0.05 | 0.05 | 90 | |
| 20260508090622 | 11 | 153 | 6.4 | 12.9 | 0.00 | 0.05 | 0.05 | 90 | |
| 20260508090501 | 11 | 152 | 6.4 | 12.9 | 0.00 | 0.05 | 0.05 | 91 | |
| 20260508090401 | 11 | 154 | 6.4 | 12.9 | 0.00 | 0.05 | 0.05 | 91 | |
| 20260508090301 | 10 | 154 | 6.4 | 14.5 | 0.00 | 0.05 | 0.05 | 91 | |
| 20260508090201 | 10 | 156 | 6.4 | 14.5 | 0.00 | 0.05 | 0.05 | 91 | |
| 20260508090123 | 10 | 158 | 8.0 | 14.5 | 0.00 | 0.05 | 0.05 | 91 | |
| 20260508090001 | 10 | 158 | 8.0 | 14.5 | 0.00 | 0.05 | 0.05 | 91 | |
| 20260508085922 | 10 | 158 | 8.0 | 14.5 | 0.00 | 0.05 | 0.05 | 91 | |
| 20260508085803 | 10 | 158 | 8.0 | 14.5 | 0.00 | 0.05 | 0.05 | 91 | |
| 20260508085701 | 10 | 160 | 8.0 | 14.5 | 0.00 | 0.05 | 0.05 | 91 | |
| 20260508085601 | 10 | 162 | 8.0 | 14.5 | 0.00 | 0.05 | 0.05 | 91 | |
| 20260508085501 | 10 | 164 | 8.0 | 14.5 | 0.00 | 0.05 | 0.05 | 91 | |
| 20260508085401 | 10 | 165 | 8.0 | 14.5 | 0.00 | 0.05 | 0.05 | 91 | |
| 20260508085301 | 10 | 166 | 8.0 | 14.5 | 0.00 | 0.05 | 0.05 | 91 | |
| 20260508085201 | 10 | 165 | 8.0 | 14.5 | 0.00 | 0.05 | 0.05 | 91 | |
| 20260508085101 | 10 | 164 | 6.4 | 14.5 | 0.00 | 0.05 | 0.05 | 91 | |
| 20260508085001 | 10 | 164 | 6.4 | 14.5 | 0.00 | 0.05 | 0.05 | 91 | |
| 20260508084923 | 10 | 165 | 6.4 | 12.9 | 0.00 | 0.05 | 0.05 | 92 | |
| 20260508084801 | 10 | 169 | 6.4 | 12.9 | 0.00 | 0.05 | 0.05 | 91 | |
| 20260508084701 | 10 | 169 | 6.4 | 12.9 | 0.00 | 0.05 | 0.05 | 91 | |
| 20260508084601 | 10 | 169 | 6.4 | 12.9 | 0.00 | 0.05 | 0.05 | 91 | |
| 20260508084502 | 10 | 168 | 6.4 | 12.9 | 0.00 | 0.05 | 0.05 | 92 | |
| 20260508084401 | 10 | 166 | 6.4 | 11.3 | 0.00 | 0.05 | 0.05 | 92 | |
| 20260508084301 | 10 | 166 | 4.8 | 11.3 | 0.00 | 0.05 | 0.05 | 92 | |
| 20260508084201 | 10 | 168 | 4.8 | 11.3 | 0.00 | 0.05 | 0.05 | 92 | |
| 20260508084123 | 10 | 169 | 4.8 | 11.3 | 0.00 | 0.05 | 0.05 | 92 | |
| 20260508084022 | 10 | 168 | 6.4 | 11.3 | 0.00 | 0.05 | 0.05 | 92 | |
| 20260508083901 | 10 | 166 | 6.4 | 11.3 | 0.00 | 0.05 | 0.05 | 92 | |
| 20260508083801 | 10 | 163 | 6.4 | 11.3 | 0.00 | 0.05 | 0.05 | 92 | |
| 20260508083701 | 10 | 162 | 6.4 | 12.9 | 0.00 | 0.05 | 0.05 | 92 | |
| 20260508083601 | 10 | 161 | 6.4 | 12.9 | 0.00 | 0.05 | 0.05 | 92 | |
| 20260508083501 | 10 | 161 | 6.4 | 12.9 | 0.00 | 0.05 | 0.05 | 92 | |
| 20260508083401 | 10 | 163 | 6.4 | 12.9 | 0.00 | 0.05 | 0.05 | 92 | |
| 20260508083301 | 10 | 164 | 8.0 | 12.9 | 0.00 | 0.05 | 0.05 | 92 | |
| 20260508083201 | 10 | 165 | 8.0 | 14.5 | 0.00 | 0.05 | 0.05 | 92 | |
| 20260508083122 | 10 | 165 | 8.0 | 14.5 | 0.00 | 0.05 | 0.05 | 92 | |
| 20260508083001 | 10 | 165 | 8.0 | 14.5 | 0.00 | 0.05 | 0.05 | 92 | |
| 20260508082901 | 10 | 166 | 8.0 | 14.5 | 0.00 | 0.05 | 0.05 | 92 | |
| 20260508082801 | 10 | 167 | 8.0 | 14.5 | 0.00 | 0.05 | 0.05 | 92 | |
| 20260508082701 | 10 | 168 | 8.0 | 14.5 | 0.00 | 0.05 | 0.05 | 92 | |
| 20260508082602 | 10 | 170 | 8.0 | 14.5 | 0.00 | 0.05 | 0.05 | 92 | |
| 20260508082501 | 10 | 172 | 8.0 | 14.5 | 0.00 | 0.05 | 0.05 | 92 | |
| 20260508082423 | 10 | 173 | 8.0 | 14.5 | 0.00 | 0.05 | 0.05 | 92 | |
| 20260508082305 | 10 | 171 | 9.7 | 14.5 | 0.00 | 0.05 | 0.05 | 92 | |
| 20260508082201 | 10 | 170 | 8.0 | 14.5 | 0.00 | 0.05 | 0.05 | 93 | |
| 20260508082101 | 10 | 170 | 8.0 | 12.9 | 0.00 | 0.05 | 0.05 | 93 | |
| 20260508082002 | 10 | 170 | 8.0 | 12.9 | 0.00 | 0.05 | 0.05 | 93 | |
| 20260508081922 | 10 | 170 | 8.0 | 12.9 | 0.00 | 0.05 | 0.05 | 93 | |
| 20260508081801 | 10 | 171 | 8.0 | 12.9 | 0.00 | 0.05 | 0.05 | 93 | |
| 20260508081701 | 10 | 172 | 8.0 | 12.9 | 0.00 | 0.05 | 0.05 | 93 | |
| 20260508081601 | 10 | 172 | 8.0 | 12.9 | 0.00 | 0.05 | 0.05 | 93 | |
| 20260508081502 | 9 | 171 | 8.0 | 12.9 | 0.00 | 0.05 | 0.05 | 93 | |
| 20260508081401 | 9 | 170 | 8.0 | 12.9 | 0.00 | 0.05 | 0.05 | 93 | |
| 20260508081302 | 9 | 171 | 8.0 | 12.9 | 0.00 | 0.05 | 0.05 | 93 | |
| 20260508081201 | 9 | 174 | 8.0 | 12.9 | 0.00 | 0.05 | 0.05 | 93 | |
| 20260508081101 | 9 | 174 | 8.0 | 12.9 | 0.00 | 0.05 | 0.05 | 93 | |
| 20260508081001 | 9 | 177 | 8.0 | 12.9 | 0.00 | 0.05 | 0.05 | 93 | |
| 20260508080902 | 9 | 178 | 8.0 | 12.9 | 0.00 | 0.05 | 0.05 | 93 | |
| 20260508080801 | 9 | 178 | 6.4 | 12.9 | 0.00 | 0.05 | 0.05 | 94 | |
| 20260508080701 | 9 | 177 | 6.4 | 12.9 | 0.00 | 0.05 | 0.05 | 93 | |
| 20260508080622 | 9 | 175 | 6.4 | 12.9 | 0.00 | 0.05 | 0.05 | 93 | |
| 20260508080501 | 9 | 174 | 6.4 | 12.9 | 0.00 | 0.05 | 0.05 | 93 | |
| 20260508080401 | 9 | 174 | 6.4 | 12.9 | 0.00 | 0.05 | 0.05 | 93 | |
| 20260508080301 | 9 | 171 | 6.4 | 12.9 | 0.00 | 0.05 | 0.05 | 94 | |
| 20260508080201 | 9 | 168 | 6.4 | 12.9 | 0.00 | 0.05 | 0.05 | 94 | |
| 20260508080023 | 8 | 164 | 6.4 | 12.9 | 0.00 | 0.05 | 0.05 | 93 | |
| 20260508075902 | 8 | 162 | 8.0 | 12.9 | 0.00 | 0.05 | 0.05 | 93 | |
| 20260508075801 | 8 | 159 | 8.0 | 12.9 | 0.00 | 0.05 | 0.05 | 93 | |
| 20260508075701 | 8 | 159 | 8.0 | 12.9 | 0.00 | 0.05 | 0.05 | 93 | |
| 20260508075601 | 8 | 158 | 8.0 | 12.9 | 0.00 | 0.05 | 0.05 | 93 | |
| 20260508075501 | 8 | 157 | 8.0 | 12.9 | 0.00 | 0.05 | 0.05 | 93 | |
| 20260508075401 | 8 | 158 | 8.0 | 12.9 | 0.00 | 0.05 | 0.05 | 93 | |
| 20260508075302 | 8 | 159 | 8.0 | 12.9 | 0.00 | 0.05 | 0.05 | 93 | |
| 20260508075201 | 8 | 161 | 8.0 | 12.9 | 0.00 | 0.05 | 0.05 | 93 | |
| 20260508075101 | 8 | 161 | 8.0 | 12.9 | 0.00 | 0.05 | 0.05 | 93 | |
| 20260508075002 | 8 | 159 | 8.0 | 12.9 | 0.00 | 0.05 | 0.05 | 93 | |
| 20260508074902 | 8 | 159 | 8.0 | 12.9 | 0.00 | 0.05 | 0.05 | 93 | |
| 20260508074801 | 8 | 159 | 8.0 | 12.9 | 0.00 | 0.05 | 0.05 | 93 | |
| 20260508074722 | 8 | 159 | 8.0 | 12.9 | 0.00 | 0.05 | 0.05 | 93 | |
| 20260508074601 | 8 | 157 | 8.0 | 12.9 | 0.00 | 0.05 | 0.05 | 93 | |
| 20260508074501 | 8 | 157 | 8.0 | 12.9 | 0.00 | 0.05 | 0.05 | 93 | |
| 20260508074401 | 8 | 155 | 6.4 | 12.9 | 0.00 | 0.05 | 0.05 | 93 | |
| 20260508074301 | 8 | 154 | 6.4 | 12.9 | 0.00 | 0.05 | 0.05 | 93 | |
| 20260508074222 | 8 | 152 | 6.4 | 11.3 | 0.00 | 0.05 | 0.05 | 93 | |
| 20260508074101 | 8 | 150 | 6.4 | 11.3 | 0.00 | 0.05 | 0.05 | 93 | |
| 20260508074022 | 8 | 150 | 6.4 | 11.3 | 0.00 | 0.05 | 0.05 | 93 | |
| 20260508073901 | 8 | 151 | 6.4 | 11.3 | 0.00 | 0.05 | 0.05 | 93 | |
| 20260508073822 | 8 | 150 | 6.4 | 16.1 | 0.00 | 0.05 | 0.05 | 93 | |
| 20260508073701 | 8 | 150 | 6.4 | 16.1 | 0.00 | 0.05 | 0.05 | 93 | |
| 20260508073601 | 8 | 149 | 6.4 | 16.1 | 0.00 | 0.05 | 0.05 | 93 | |
| 20260508073502 | 8 | 152 | 6.4 | 16.1 | 0.00 | 0.05 | 0.05 | 93 | |
| 20260508073422 | 8 | 152 | 6.4 | 16.1 | 0.00 | 0.05 | 0.05 | 93 | |
| 20260508073301 | 8 | 151 | 6.4 | 16.1 | 0.00 | 0.05 | 0.05 | 93 | |
| 20260508073201 | 8 | 153 | 6.4 | 16.1 | 0.00 | 0.05 | 0.05 | 93 | |
| 20260508073122 | 8 | 155 | 6.4 | 16.1 | 0.00 | 0.05 | 0.05 | 93 | |
| 20260508073023 | 8 | 155 | 8.0 | 16.1 | 0.00 | 0.05 | 0.05 | 93 | |
| 20260508072902 | 8 | 155 | 8.0 | 16.1 | 0.00 | 0.05 | 0.05 | 93 | |
| 20260508072801 | 8 | 155 | 6.4 | 12.9 | 0.00 | 0.05 | 0.05 | 93 | |
| 20260508072701 | 8 | 155 | 6.4 | 12.9 | 0.00 | 0.05 | 0.05 | 93 | |
| 20260508072623 | 8 | 156 | 6.4 | 12.9 | 0.00 | 0.05 | 0.05 | 93 | |
| 20260508072501 | 8 | 154 | 6.4 | 12.9 | 0.00 | 0.05 | 0.05 | 93 | |
| 20260508072401 | 8 | 153 | 6.4 | 12.9 | 0.00 | 0.05 | 0.05 | 93 | |
| 20260508072323 | 8 | 153 | 6.4 | 12.9 | 0.00 | 0.05 | 0.05 | 93 | |
| 20260508072201 | 8 | 150 | 6.4 | 12.9 | 0.00 | 0.05 | 0.05 | 93 | |
| 20260508072101 | 8 | 149 | 6.4 | 12.9 | 0.00 | 0.05 | 0.05 | 93 | |
| 20260508072001 | 8 | 148 | 4.8 | 12.9 | 0.00 | 0.05 | 0.05 | 93 | |
| 20260508071902 | 8 | 146 | 4.8 | 11.3 | 0.00 | 0.05 | 0.05 | 93 | |
| 20260508071801 | 8 | 145 | 4.8 | 11.3 | 0.00 | 0.05 | 0.05 | 93 | |
| 20260508071702 | 8 | 143 | 4.8 | 11.3 | 0.00 | 0.05 | 0.05 | 93 | |
| 20260508071623 | 8 | 142 | 4.8 | 11.3 | 0.00 | 0.05 | 0.05 | 93 | |
| 20260508071502 | 8 | 141 | 4.8 | 11.3 | 0.00 | 0.05 | 0.05 | 93 | |
| 20260508071422 | 8 | 138 | 4.8 | 11.3 | 0.00 | 0.05 | 0.05 | 93 | |
| 20260508071301 | 8 | 138 | 3.2 | 11.3 | 0.00 | 0.05 | 0.05 | 93 | |
| 20260508071201 | 8 | 137 | 3.2 | 9.7 | 0.00 | 0.05 | 0.05 | 93 | |
| 20260508071101 | 8 | 137 | 3.2 | 9.7 | 0.00 | 0.05 | 0.05 | 93 | |
| 20260508071001 | 8 | 138 | 3.2 | 9.7 | 0.00 | 0.05 | 0.05 | 93 | |
| 20260508070901 | 8 | 140 | 3.2 | 8.0 | 0.00 | 0.05 | 0.05 | 93 | |
| 20260508070801 | 8 | 142 | 3.2 | 11.3 | 0.00 | 0.05 | 0.05 | 93 | |
| 20260508070722 | 8 | 141 | 3.2 | 11.3 | 0.00 | 0.05 | 0.05 | 93 | |
| 20260508070601 | 8 | 142 | 4.8 | 11.3 | 0.00 | 0.05 | 0.05 | 93 | |
| 20260508070501 | 8 | 145 | 4.8 | 11.3 | 0.03 | 0.05 | 0.05 | 93 | |
| 20260508070401 | 8 | 147 | 4.8 | 11.3 | 0.03 | 0.05 | 0.05 | 93 | |
| 20260508070301 | 8 | 147 | 4.8 | 11.3 | 0.03 | 0.05 | 0.05 | 93 | |
| 20260508070201 | 8 | 145 | 4.8 | 11.3 | 0.03 | 0.05 | 0.05 | 93 | |
| 20260508070023 | 8 | 146 | 4.8 | 11.3 | 0.03 | 0.05 | 0.05 | 93 | |
| 20260508065902 | 8 | 146 | 4.8 | 11.3 | 0.03 | 0.05 | 0.05 | 93 | |
| 20260508065801 | 7 | 145 | 4.8 | 9.7 | 0.03 | 0.05 | 0.05 | 93 | |
| 20260508065722 | 7 | 144 | 4.8 | 9.7 | 0.03 | 0.05 | 0.05 | 93 | |
| 20260508065601 | 7 | 145 | 4.8 | 9.7 | 0.03 | 0.05 | 0.05 | 93 | |
| 20260508065501 | 7 | 144 | 4.8 | 9.7 | 0.03 | 0.05 | 0.05 | 93 | |
| 20260508065401 | 7 | 145 | 4.8 | 9.7 | 0.03 | 0.05 | 0.05 | 93 | |
| 20260508065323 | 7 | 145 | 4.8 | 9.7 | 0.03 | 0.05 | 0.05 | 93 | |
| 20260508065201 | 7 | 150 | 4.8 | 8.0 | 0.03 | 0.05 | 0.05 | 93 | |
| 20260508065102 | 7 | 151 | 4.8 | 8.0 | 0.03 | 0.05 | 0.05 | 93 | |
| 20260508065001 | 7 | 154 | 4.8 | 8.0 | 0.03 | 0.05 | 0.05 | 93 | |
| 20260508064902 | 7 | 155 | 4.8 | 8.0 | 0.03 | 0.05 | 0.05 | 93 | |
| 20260508064801 | 7 | 157 | 4.8 | 8.0 | 0.03 | 0.05 | 0.05 | 93 | |
| 20260508064701 | 7 | 160 | 4.8 | 9.7 | 0.03 | 0.05 | 0.05 | 93 | |
| 20260508064601 | 7 | 161 | 4.8 | 9.7 | 0.03 | 0.05 | 0.05 | 93 | |
| 20260508064523 | 7 | 162 | 4.8 | 9.7 | 0.03 | 0.05 | 0.05 | 93 | |
| 20260508064402 | 7 | 162 | 4.8 | 9.7 | 0.03 | 0.05 | 0.05 | 93 | |
| 20260508064301 | 7 | 164 | 4.8 | 9.7 | 0.03 | 0.05 | 0.05 | 93 | |
| 20260508064203 | 7 | 163 | 4.8 | 9.7 | 0.03 | 0.05 | 0.05 | 93 | |
| 20260508064102 | 7 | 161 | 4.8 | 9.7 | 0.03 | 0.05 | 0.05 | 93 | |
| 20260508064001 | 7 | 161 | 4.8 | 9.7 | 0.03 | 0.05 | 0.05 | 93 | |
| 20260508063901 | 7 | 161 | 6.4 | 9.7 | 0.03 | 0.05 | 0.05 | 93 | |
| 20260508063801 | 7 | 162 | 6.4 | 9.7 | 0.03 | 0.05 | 0.05 | 93 | |
| 20260508063702 | 7 | 161 | 6.4 | 9.7 | 0.03 | 0.05 | 0.05 | 93 | |
| 20260508063622 | 7 | 160 | 6.4 | 9.7 | 0.03 | 0.05 | 0.05 | 93 | |
| 20260508063502 | 7 | 160 | 6.4 | 9.7 | 0.03 | 0.05 | 0.05 | 92 | |
| 20260508063401 | 7 | 159 | 6.4 | 9.7 | 0.03 | 0.05 | 0.05 | 93 | |
| 20260508063301 | 7 | 158 | 6.4 | 9.7 | 0.03 | 0.05 | 0.05 | 93 | |
| 20260508063222 | 7 | 158 | 6.4 | 9.7 | 0.03 | 0.05 | 0.05 | 93 | |
| 20260508063102 | 7 | 160 | 6.4 | 9.7 | 0.03 | 0.05 | 0.05 | 92 | |
| 20260508063001 | 7 | 161 | 6.4 | 9.7 | 0.03 | 0.05 | 0.05 | 92 | |
| 20260508062901 | 7 | 159 | 4.8 | 9.7 | 0.03 | 0.05 | 0.05 | 93 | |
| 20260508062802 | 7 | 158 | 4.8 | 9.7 | 0.03 | 0.05 | 0.05 | 93 | |
| 20260508062701 | 7 | 156 | 4.8 | 9.7 | 0.03 | 0.05 | 0.05 | 92 | |
| 20260508062601 | 7 | 155 | 4.8 | 9.7 | 0.03 | 0.05 | 0.05 | 92 | |
| 20260508062501 | 7 | 154 | 4.8 | 9.7 | 0.03 | 0.05 | 0.05 | 92 | |
| 20260508062402 | 7 | 154 | 4.8 | 9.7 | 0.03 | 0.05 | 0.05 | 92 | |
| 20260508062305 | 7 | 154 | 6.4 | 9.7 | 0.03 | 0.05 | 0.05 | 92 | |
| 20260508062202 | 7 | 153 | 6.4 | 9.7 | 0.03 | 0.05 | 0.05 | 92 | |
| 20260508062102 | 7 | 152 | 6.4 | 9.7 | 0.03 | 0.05 | 0.05 | 92 | |
| 20260508062022 | 7 | 152 | 6.4 | 9.7 | 0.03 | 0.05 | 0.05 | 92 | |
| 20260508061901 | 7 | 150 | 6.4 | 9.7 | 0.03 | 0.05 | 0.05 | 92 | |
| 20260508061801 | 7 | 150 | 6.4 | 9.7 | 0.03 | 0.05 | 0.05 | 92 | |
| 20260508061703 | 7 | 150 | 6.4 | 9.7 | 0.03 | 0.05 | 0.05 | 92 | |
| 20260508061623 | 7 | 150 | 6.4 | 9.7 | 0.03 | 0.05 | 0.05 | 92 | |
| 20260508061502 | 7 | 150 | 6.4 | 9.7 | 0.03 | 0.05 | 0.05 | 92 | |
| 20260508061402 | 7 | 148 | 6.4 | 9.7 | 0.03 | 0.05 | 0.05 | 92 | |
| 20260508061301 | 7 | 148 | 6.4 | 9.7 | 0.03 | 0.05 | 0.05 | 92 | |
| 20260508061205 | 7 | 147 | 6.4 | 9.7 | 0.03 | 0.05 | 0.05 | 92 | |
| 20260508061102 | 7 | 144 | 6.4 | 9.7 | 0.03 | 0.05 | 0.05 | 92 | |
| 20260508061002 | 7 | 141 | 6.4 | 9.7 | 0.03 | 0.05 | 0.05 | 92 | |
| 20260508060922 | 7 | 141 | 6.4 | 9.7 | 0.03 | 0.05 | 0.05 | 92 | |
| 20260508060802 | 7 | 139 | 6.4 | 9.7 | 0.03 | 0.05 | 0.05 | 92 | |
| 20260508060702 | 7 | 140 | 6.4 | 9.7 | 0.03 | 0.05 | 0.05 | 92 | |
| 20260508060602 | 7 | 142 | 6.4 | 11.3 | 0.03 | 0.05 | 0.05 | 92 | |
| 20260508060501 | 7 | 143 | 6.4 | 12.9 | 0.00 | 0.03 | 0.03 | 92 | |
| 20260508060401 | 7 | 145 | 6.4 | 12.9 | 0.00 | 0.03 | 0.03 | 92 | |
| 20260508060301 | 7 | 146 | 6.4 | 12.9 | 0.00 | 0.03 | 0.03 | 92 | |
| 20260508060202 | 7 | 147 | 6.4 | 12.9 | 0.00 | 0.03 | 0.03 | 92 | |
| 20260508060002 | 7 | 147 | 6.4 | 12.9 | 0.00 | 0.03 | 0.03 | 92 | |
| 20260508055901 | 7 | 148 | 6.4 | 12.9 | 0.00 | 0.03 | 0.03 | 92 | |
| 20260508055823 | 7 | 150 | 6.4 | 12.9 | 0.03 | 0.03 | 0.03 | 92 | |
| 20260508055723 | 7 | 150 | 6.4 | 12.9 | 0.03 | 0.03 | 0.03 | 92 | |
| 20260508055601 | 7 | 150 | 6.4 | 12.9 | 0.03 | 0.03 | 0.03 | 92 | |
| 20260508055523 | 7 | 148 | 6.4 | 12.9 | 0.03 | 0.03 | 0.03 | 92 | |
| 20260508055423 | 7 | 147 | 6.4 | 12.9 | 0.03 | 0.03 | 0.03 | 92 | |
| 20260508055305 | 7 | 144 | 6.4 | 12.9 | 0.03 | 0.03 | 0.03 | 92 | |
| 20260508055201 | 7 | 145 | 6.4 | 11.3 | 0.03 | 0.03 | 0.03 | 92 | |
| 20260508055102 | 7 | 146 | 6.4 | 11.3 | 0.03 | 0.03 | 0.03 | 92 | |
| 20260508055002 | 7 | 145 | 6.4 | 12.9 | 0.03 | 0.03 | 0.03 | 92 | |
| 20260508054902 | 7 | 144 | 6.4 | 12.9 | 0.03 | 0.03 | 0.03 | 92 | |
| 20260508054801 | 7 | 145 | 6.4 | 12.9 | 0.03 | 0.03 | 0.03 | 92 | |
| 20260508054701 | 7 | 145 | 6.4 | 12.9 | 0.03 | 0.03 | 0.03 | 92 | |
| 20260508054602 | 7 | 145 | 6.4 | 12.9 | 0.03 | 0.03 | 0.03 | 92 | |
| 20260508054501 | 7 | 145 | 6.4 | 12.9 | 0.03 | 0.03 | 0.03 | 92 | |
| 20260508054401 | 7 | 144 | 6.4 | 12.9 | 0.03 | 0.03 | 0.03 | 92 | |
| 20260508054302 | 7 | 145 | 6.4 | 12.9 | 0.03 | 0.03 | 0.03 | 92 | |
| 20260508054201 | 7 | 144 | 6.4 | 12.9 | 0.03 | 0.03 | 0.03 | 92 | |
| 20260508054101 | 7 | 143 | 4.8 | 12.9 | 0.03 | 0.03 | 0.03 | 92 | |
| 20260508054002 | 7 | 143 | 4.8 | 9.7 | 0.03 | 0.03 | 0.03 | 92 | |
| 20260508053923 | 7 | 143 | 4.8 | 9.7 | 0.03 | 0.03 | 0.03 | 92 | |
| 20260508053803 | 7 | 142 | 4.8 | 9.7 | 0.03 | 0.03 | 0.03 | 92 | |
| 20260508053723 | 7 | 141 | 4.8 | 9.7 | 0.03 | 0.03 | 0.03 | 92 | |
| 20260508053633 | 7 | 141 | 4.8 | 9.7 | 0.03 | 0.03 | 0.03 | 92 | |
| 20260508053501 | 7 | 144 | 4.8 | 9.7 | 0.03 | 0.03 | 0.03 | 92 | |
| 20260508053402 | 7 | 145 | 4.8 | 9.7 | 0.03 | 0.03 | 0.03 | 92 | |
| 20260508053302 | 7 | 145 | 4.8 | 9.7 | 0.03 | 0.03 | 0.03 | 92 | |
| 20260508053201 | 7 | 146 | 4.8 | 11.3 | 0.03 | 0.03 | 0.03 | 92 | |
| 20260508053101 | 7 | 147 | 4.8 | 11.3 | 0.03 | 0.03 | 0.03 | 92 | |
| 20260508053002 | 7 | 148 | 4.8 | 11.3 | 0.03 | 0.03 | 0.03 | 92 | |
| 20260508052902 | 7 | 147 | 6.4 | 11.3 | 0.03 | 0.03 | 0.03 | 92 | |
| 20260508052801 | 7 | 148 | 6.4 | 11.3 | 0.03 | 0.03 | 0.03 | 92 | |
| 20260508052701 | 7 | 148 | 6.4 | 11.3 | 0.03 | 0.03 | 0.03 | 91 | |
| 20260508052602 | 7 | 149 | 6.4 | 11.3 | 0.03 | 0.03 | 0.03 | 92 | |
| 20260508052501 | 7 | 149 | 6.4 | 12.9 | 0.03 | 0.03 | 0.03 | 91 | |
| 20260508052402 | 7 | 148 | 6.4 | 12.9 | 0.03 | 0.03 | 0.03 | 91 | |
| 20260508052306 | 7 | 148 | 6.4 | 12.9 | 0.03 | 0.03 | 0.03 | 91 | |
| 20260508052202 | 7 | 149 | 6.4 | 12.9 | 0.03 | 0.03 | 0.03 | 91 | |
| 20260508052122 | 7 | 148 | 6.4 | 12.9 | 0.03 | 0.03 | 0.03 | 91 | |
| 20260508052001 | 7 | 148 | 6.4 | 12.9 | 0.03 | 0.03 | 0.03 | 91 | |
| 20260508051901 | 7 | 147 | 6.4 | 12.9 | 0.03 | 0.03 | 0.03 | 91 | |
| 20260508051801 | 7 | 147 | 6.4 | 12.9 | 0.03 | 0.03 | 0.03 | 91 | |
| 20260508051702 | 7 | 147 | 6.4 | 12.9 | 0.03 | 0.03 | 0.03 | 91 | |
| 20260508051601 | 7 | 146 | 6.4 | 12.9 | 0.03 | 0.03 | 0.03 | 91 | |
| 20260508051501 | 7 | 145 | 6.4 | 9.7 | 0.03 | 0.03 | 0.03 | 91 | |
| 20260508051401 | 7 | 146 | 6.4 | 9.7 | 0.03 | 0.03 | 0.03 | 91 | |
| 20260508051301 | 7 | 147 | 6.4 | 11.3 | 0.03 | 0.03 | 0.03 | 91 | |
| 20260508051201 | 7 | 145 | 6.4 | 11.3 | 0.03 | 0.03 | 0.03 | 91 | |
| 20260508051101 | 7 | 145 | 6.4 | 11.3 | 0.03 | 0.03 | 0.03 | 91 | |
| 20260508051001 | 7 | 146 | 6.4 | 11.3 | 0.03 | 0.03 | 0.03 | 91 | |
| 20260508050902 | 7 | 146 | 6.4 | 11.3 | 0.03 | 0.03 | 0.03 | 91 | |
| 20260508050801 | 7 | 146 | 6.4 | 11.3 | 0.03 | 0.03 | 0.03 | 91 | |
| 20260508050701 | 7 | 146 | 6.4 | 11.3 | 0.03 | 0.03 | 0.03 | 91 | |
| 20260508050602 | 7 | 146 | 6.4 | 11.3 | 0.03 | 0.03 | 0.03 | 91 | |
| 20260508050501 | 7 | 145 | 6.4 | 11.3 | 0.03 | 0.03 | 0.03 | 91 | |
| 20260508050401 | 7 | 145 | 6.4 | 11.3 | 0.03 | 0.03 | 0.03 | 91 | |
| 20260508050323 | 7 | 144 | 4.8 | 9.7 | 0.03 | 0.03 | 0.03 | 91 | |
| 20260508050201 | 7 | 146 | 6.4 | 9.7 | 0.03 | 0.03 | 0.03 | 91 | |
| 20260508050002 | 7 | 144 | 6.4 | 9.7 | 0.03 | 0.03 | 0.03 | 91 | |
| 20260508045901 | 7 | 144 | 4.8 | 9.7 | 0.03 | 0.03 | 0.03 | 91 | |
| 20260508045822 | 7 | 144 | 6.4 | 9.7 | 0.00 | 0.00 | 0.03 | 91 | |
| 20260508045702 | 7 | 145 | 6.4 | 11.3 | 0.00 | 0.00 | 0.00 | 91 | |
| 20260508045601 | 7 | 146 | 6.4 | 11.3 | 0.00 | 0.00 | 0.00 | 91 | |
| 20260508045502 | 7 | 146 | 6.4 | 11.3 | 0.00 | 0.00 | 0.00 | 91 | |
| 20260508045402 | 7 | 145 | 6.4 | 11.3 | 0.00 | 0.00 | 0.00 | 91 | |
| 20260508045301 | 7 | 145 | 6.4 | 11.3 | 0.00 | 0.00 | 0.00 | 91 | |
| 20260508045223 | 7 | 145 | 6.4 | 12.9 | 0.00 | 0.00 | 0.00 | 91 | |
| 20260508045101 | 7 | 146 | 6.4 | 12.9 | 0.00 | 0.00 | 0.00 | 91 | |
| 20260508045001 | 7 | 148 | 6.4 | 12.9 | 0.00 | 0.00 | 0.00 | 91 | |
| 20260508044901 | 7 | 148 | 6.4 | 12.9 | 0.00 | 0.00 | 0.00 | 91 | |
| 20260508044802 | 7 | 146 | 6.4 | 12.9 | 0.00 | 0.00 | 0.00 | 91 | |
| 20260508044702 | 7 | 145 | 6.4 | 12.9 | 0.00 | 0.00 | 0.00 | 91 | |
| 20260508044601 | 7 | 145 | 6.4 | 12.9 | 0.00 | 0.00 | 0.00 | 91 | |
| 20260508044501 | 7 | 146 | 6.4 | 12.9 | 0.00 | 0.00 | 0.00 | 91 | |
| 20260508044402 | 7 | 147 | 6.4 | 12.9 | 0.00 | 0.00 | 0.00 | 91 | |
| 20260508044301 | 7 | 147 | 6.4 | 12.9 | 0.00 | 0.00 | 0.00 | 91 | |
| 20260508044223 | 7 | 147 | 6.4 | 12.9 | 0.00 | 0.00 | 0.00 | 91 | |
| 20260508044102 | 7 | 147 | 6.4 | 12.9 | 0.00 | 0.00 | 0.00 | 91 | |
| 20260508044002 | 7 | 146 | 4.8 | 12.9 | 0.00 | 0.00 | 0.00 | 91 | |
| 20260508043902 | 7 | 147 | 6.4 | 12.9 | 0.00 | 0.00 | 0.00 | 90 | |
| 20260508043801 | 7 | 147 | 6.4 | 12.9 | 0.00 | 0.00 | 0.00 | 90 | |
| 20260508043701 | 7 | 148 | 6.4 | 12.9 | 0.00 | 0.00 | 0.00 | 90 | |
| 20260508043623 | 7 | 149 | 6.4 | 12.9 | 0.00 | 0.00 | 0.00 | 90 | |
| 20260508043502 | 7 | 149 | 6.4 | 12.9 | 0.00 | 0.00 | 0.00 | 90 | |
| 20260508043402 | 7 | 149 | 6.4 | 12.9 | 0.00 | 0.00 | 0.00 | 90 | |
| 20260508043302 | 7 | 150 | 6.4 | 12.9 | 0.00 | 0.00 | 0.00 | 90 | |
| 20260508043201 | 7 | 150 | 6.4 | 12.9 | 0.00 | 0.00 | 0.00 | 90 | |
| 20260508043101 | 7 | 150 | 6.4 | 11.3 | 0.00 | 0.00 | 0.00 | 90 | |
| 20260508043001 | 7 | 150 | 6.4 | 11.3 | 0.00 | 0.00 | 0.00 | 90 | |
| 20260508042902 | 7 | 149 | 6.4 | 11.3 | 0.00 | 0.00 | 0.00 | 90 | |
| 20260508042802 | 7 | 150 | 6.4 | 11.3 | 0.00 | 0.00 | 0.00 | 90 | |
| 20260508042702 | 7 | 151 | 6.4 | 11.3 | 0.00 | 0.00 | 0.00 | 90 | |
| 20260508042601 | 7 | 150 | 4.8 | 11.3 | 0.00 | 0.00 | 0.00 | 90 | |
| 20260508042502 | 7 | 150 | 6.4 | 11.3 | 0.00 | 0.00 | 0.00 | 90 | |
| 20260508042401 | 7 | 150 | 6.4 | 11.3 | 0.00 | 0.00 | 0.00 | 90 | |
| 20260508042306 | 7 | 148 | 6.4 | 11.3 | 0.00 | 0.00 | 0.00 | 90 | |
| 20260508042202 | 7 | 147 | 6.4 | 11.3 | 0.00 | 0.00 | 0.00 | 90 | |
| 20260508042102 | 7 | 147 | 6.4 | 11.3 | 0.00 | 0.00 | 0.00 | 90 | |
| 20260508042023 | 7 | 147 | 6.4 | 11.3 | 0.00 | 0.00 | 0.00 | 90 | |
| 20260508041901 | 7 | 145 | 6.4 | 11.3 | 0.00 | 0.00 | 0.00 | 90 | |
| 20260508041802 | 7 | 145 | 6.4 | 11.3 | 0.00 | 0.00 | 0.00 | 90 | |
| 20260508041701 | 7 | 145 | 6.4 | 11.3 | 0.00 | 0.00 | 0.00 | 90 | |
| 20260508041601 | 7 | 144 | 4.8 | 11.3 | 0.00 | 0.00 | 0.00 | 90 | |
| 20260508041502 | 7 | 143 | 4.8 | 11.3 | 0.00 | 0.00 | 0.00 | 90 | |
| 20260508041401 | 7 | 142 | 4.8 | 11.3 | 0.00 | 0.00 | 0.00 | 90 | |
| 20260508041303 | 7 | 142 | 4.8 | 11.3 | 0.00 | 0.00 | 0.00 | 90 | |
| 20260508041202 | 7 | 142 | 4.8 | 11.3 | 0.00 | 0.00 | 0.00 | 90 | |
| 20260508041101 | 7 | 142 | 4.8 | 11.3 | 0.00 | 0.00 | 0.00 | 90 | |
| 20260508041002 | 7 | 142 | 4.8 | 11.3 | 0.00 | 0.00 | 0.00 | 89 | |
| 20260508040901 | 7 | 142 | 4.8 | 11.3 | 0.00 | 0.00 | 0.00 | 89 | |
| 20260508040801 | 7 | 137 | 4.8 | 11.3 | 0.00 | 0.00 | 0.00 | 89 | |
| 20260508040701 | 7 | 133 | 4.8 | 9.7 | 0.00 | 0.00 | 0.00 | 89 | |
| 20260508040601 | 7 | 132 | 4.8 | 9.7 | 0.00 | 0.00 | 0.00 | 89 | |
| 20260508040502 | 7 | 132 | 4.8 | 9.7 | 0.00 | 0.00 | 0.00 | 89 | |
| 20260508040423 | 7 | 131 | 4.8 | 9.7 | 0.00 | 0.00 | 0.00 | 89 | |
| 20260508040301 | 7 | 131 | 4.8 | 9.7 | 0.00 | 0.00 | 0.00 | 89 | |
| 20260508040202 | 7 | 130 | 4.8 | 9.7 | 0.00 | 0.00 | 0.00 | 89 | |
| 20260508040002 | 7 | 126 | 4.8 | 9.7 | 0.00 | 0.00 | 0.00 | 89 | |
| 20260508035901 | 7 | 125 | 4.8 | 9.7 | 0.00 | 0.00 | 0.00 | 89 | |
| 20260508035802 | 7 | 126 | 4.8 | 9.7 | 0.00 | 0.00 | 0.00 | 89 | |
| 20260508035702 | 7 | 127 | 4.8 | 9.7 | 0.00 | 0.00 | 0.00 | 89 | |
| 20260508035601 | 8 | 127 | 4.8 | 9.7 | 0.00 | 0.00 | 0.00 | 89 | |
| 20260508035502 | 8 | 127 | 4.8 | 9.7 | 0.00 | 0.00 | 0.00 | 89 | |
| 20260508035401 | 8 | 128 | 4.8 | 9.7 | 0.00 | 0.00 | 0.00 | 89 | |
| 20260508035301 | 8 | 129 | 4.8 | 9.7 | 0.00 | 0.00 | 0.00 | 89 | |
| 20260508035201 | 8 | 128 | 4.8 | 9.7 | 0.00 | 0.00 | 0.00 | 89 | |
| 20260508035123 | 8 | 128 | 4.8 | 9.7 | 0.00 | 0.00 | 0.00 | 89 | |
| 20260508035002 | 8 | 128 | 4.8 | 9.7 | 0.00 | 0.00 | 0.00 | 89 | |
| 20260508034901 | 8 | 129 | 4.8 | 9.7 | 0.00 | 0.00 | 0.00 | 89 | |
| 20260508034802 | 8 | 129 | 4.8 | 9.7 | 0.00 | 0.00 | 0.00 | 89 | |
| 20260508034701 | 8 | 128 | 4.8 | 9.7 | 0.00 | 0.00 | 0.00 | 88 | |
| 20260508034602 | 8 | 127 | 4.8 | 9.7 | 0.00 | 0.00 | 0.00 | 88 | |
| 20260508034502 | 8 | 127 | 4.8 | 9.7 | 0.00 | 0.00 | 0.00 | 88 | |
| 20260508034402 | 8 | 126 | 4.8 | 9.7 | 0.00 | 0.00 | 0.00 | 88 | |
| 20260508034301 | 8 | 123 | 4.8 | 9.7 | 0.00 | 0.00 | 0.00 | 88 | |
| 20260508034202 | 8 | 124 | 4.8 | 9.7 | 0.00 | 0.00 | 0.00 | 88 | |
| 20260508034103 | 8 | 125 | 6.4 | 9.7 | 0.00 | 0.00 | 0.00 | 88 | |
| 20260508034002 | 8 | 128 | 4.8 | 9.7 | 0.00 | 0.00 | 0.00 | 88 | |
| 20260508033902 | 8 | 127 | 4.8 | 9.7 | 0.00 | 0.00 | 0.00 | 88 | |
| 20260508033822 | 8 | 128 | 4.8 | 9.7 | 0.00 | 0.00 | 0.00 | 88 | |
| 20260508033702 | 8 | 128 | 4.8 | 9.7 | 0.00 | 0.00 | 0.00 | 88 | |
| 20260508033601 | 8 | 129 | 4.8 | 9.7 | 0.00 | 0.00 | 0.00 | 88 | |
| 20260508033502 | 8 | 129 | 4.8 | 9.7 | 0.00 | 0.00 | 0.00 | 88 | |
| 20260508033402 | 8 | 129 | 4.8 | 9.7 | 0.00 | 0.00 | 0.00 | 88 | |
| 20260508033301 | 8 | 131 | 3.2 | 9.7 | 0.00 | 0.00 | 0.00 | 88 | |
| 20260508033222 | 8 | 131 | 3.2 | 9.7 | 0.00 | 0.00 | 0.00 | 88 | |
| 20260508033101 | 8 | 133 | 3.2 | 8.0 | 0.00 | 0.00 | 0.00 | 88 | |
| 20260508033002 | 8 | 132 | 3.2 | 9.7 | 0.00 | 0.00 | 0.00 | 88 | |
| 20260508032902 | 8 | 141 | 3.2 | 12.9 | 0.00 | 0.00 | 0.00 | 88 | |
| 20260508032801 | 8 | 147 | 4.8 | 12.9 | 0.00 | 0.00 | 0.00 | 88 | |
| 20260508032702 | 8 | 152 | 4.8 | 12.9 | 0.00 | 0.00 | 0.00 | 88 | |
| 20260508032601 | 8 | 154 | 4.8 | 14.5 | 0.00 | 0.00 | 0.00 | 88 | |
| 20260508032501 | 8 | 156 | 6.4 | 14.5 | 0.00 | 0.00 | 0.00 | 88 | |
| 20260508032402 | 8 | 157 | 6.4 | 14.5 | 0.00 | 0.00 | 0.00 | 88 | |
| 20260508032305 | 8 | 158 | 6.4 | 14.5 | 0.00 | 0.00 | 0.00 | 88 | |
| 20260508032202 | 8 | 159 | 6.4 | 14.5 | 0.00 | 0.00 | 0.00 | 88 | |
| 20260508032101 | 8 | 159 | 6.4 | 14.5 | 0.00 | 0.00 | 0.00 | 88 | |
| 20260508032023 | 8 | 159 | 6.4 | 14.5 | 0.00 | 0.00 | 0.00 | 88 | |
| 20260508031922 | 8 | 158 | 4.8 | 14.5 | 0.00 | 0.00 | 0.00 | 88 | |
| 20260508031802 | 8 | 156 | 4.8 | 14.5 | 0.00 | 0.00 | 0.00 | 88 | |
| 20260508031701 | 8 | 157 | 4.8 | 14.5 | 0.00 | 0.00 | 0.00 | 88 | |
| 20260508031602 | 8 | 156 | 4.8 | 14.5 | 0.00 | 0.00 | 0.00 | 88 | |
| 20260508031502 | 8 | 156 | 3.2 | 12.9 | 0.00 | 0.00 | 0.00 | 88 | |
| 20260508031422 | 8 | 154 | 3.2 | 12.9 | 0.00 | 0.00 | 0.00 | 88 | |
| 20260508031302 | 8 | 155 | 3.2 | 12.9 | 0.00 | 0.00 | 0.00 | 88 | |
| 20260508031202 | 8 | 155 | 3.2 | 12.9 | 0.00 | 0.00 | 0.00 | 88 | |
| 20260508031122 | 8 | 154 | 4.8 | 12.9 | 0.00 | 0.00 | 0.00 | 88 | |
| 20260508031001 | 8 | 155 | 4.8 | 12.9 | 0.00 | 0.00 | 0.00 | 88 | |
| 20260508030903 | 8 | 156 | 4.8 | 12.9 | 0.00 | 0.00 | 0.00 | 87 | |
| 20260508030801 | 8 | 157 | 4.8 | 12.9 | 0.00 | 0.00 | 0.00 | 87 | |
| 20260508030701 | 8 | 156 | 4.8 | 12.9 | 0.00 | 0.00 | 0.00 | 87 | |
| 20260508030602 | 8 | 156 | 6.4 | 12.9 | 0.00 | 0.00 | 0.00 | 87 | |
| 20260508030502 | 8 | 158 | 6.4 | 16.1 | 0.00 | 0.00 | 0.00 | 87 | |
| 20260508030402 | 8 | 158 | 8.0 | 16.1 | 0.00 | 0.00 | 0.00 | 87 | |
| 20260508030302 | 8 | 159 | 8.0 | 16.1 | 0.00 | 0.00 | 0.00 | 87 | |
| 20260508030203 | 8 | 159 | 8.0 | 16.1 | 0.00 | 0.00 | 0.00 | 87 | |
| 20260508030001 | 8 | 160 | 8.0 | 16.1 | 0.00 | 0.00 | 0.00 | 87 | |
| 20260508025901 | 8 | 159 | 8.0 | 16.1 | 0.00 | 0.00 | 0.00 | 87 | |
| 20260508025801 | 8 | 157 | 8.0 | 16.1 | 0.00 | 0.00 | 0.00 | 87 | |
| 20260508025701 | 8 | 157 | 8.0 | 16.1 | 0.00 | 0.00 | 0.00 | 87 | |
| 20260508025601 | 8 | 157 | 8.0 | 16.1 | 0.00 | 0.00 | 0.00 | 87 | |
| 20260508025501 | 8 | 156 | 6.4 | 12.9 | 0.00 | 0.00 | 0.00 | 87 | |
| 20260508025402 | 8 | 156 | 6.4 | 12.9 | 0.00 | 0.00 | 0.00 | 87 | |
| 20260508025305 | 8 | 155 | 6.4 | 12.9 | 0.00 | 0.00 | 0.00 | 87 | |
| 20260508025202 | 8 | 154 | 6.4 | 12.9 | 0.00 | 0.00 | 0.00 | 87 | |
| 20260508025123 | 8 | 154 | 6.4 | 12.9 | 0.00 | 0.00 | 0.00 | 87 | |
| 20260508025002 | 8 | 152 | 4.8 | 12.9 | 0.00 | 0.00 | 0.00 | 87 | |
| 20260508024902 | 8 | 152 | 4.8 | 12.9 | 0.00 | 0.00 | 0.00 | 87 | |
| 20260508024802 | 8 | 154 | 4.8 | 12.9 | 0.00 | 0.00 | 0.00 | 87 | |
| 20260508024701 | 8 | 153 | 4.8 | 11.3 | 0.00 | 0.00 | 0.00 | 87 | |
| 20260508024602 | 8 | 153 | 4.8 | 11.3 | 0.00 | 0.00 | 0.00 | 87 | |
| 20260508024502 | 8 | 153 | 4.8 | 11.3 | 0.00 | 0.00 | 0.00 | 87 | |
| 20260508024402 | 8 | 154 | 4.8 | 11.3 | 0.00 | 0.00 | 0.00 | 87 | |
| 20260508024301 | 8 | 153 | 4.8 | 11.3 | 0.00 | 0.00 | 0.00 | 87 | |
| 20260508024222 | 8 | 152 | 4.8 | 11.3 | 0.00 | 0.00 | 0.00 | 87 | |
| 20260508024102 | 8 | 152 | 4.8 | 11.3 | 0.00 | 0.00 | 0.00 | 86 | |
| 20260508024002 | 8 | 152 | 4.8 | 11.3 | 0.00 | 0.00 | 0.00 | 86 | |
| 20260508023902 | 8 | 153 | 4.8 | 11.3 | 0.00 | 0.00 | 0.00 | 86 | |
| 20260508023802 | 8 | 153 | 4.8 | 12.9 | 0.00 | 0.00 | 0.00 | 86 | |
| 20260508023702 | 8 | 154 | 6.4 | 12.9 | 0.00 | 0.00 | 0.00 | 86 | |
| 20260508023602 | 8 | 153 | 6.4 | 12.9 | 0.00 | 0.00 | 0.00 | 86 | |
| 20260508023523 | 8 | 152 | 6.4 | 12.9 | 0.00 | 0.00 | 0.00 | 86 | |
| 20260508023402 | 8 | 152 | 6.4 | 12.9 | 0.00 | 0.00 | 0.00 | 86 | |
| 20260508023302 | 8 | 152 | 6.4 | 12.9 | 0.00 | 0.00 | 0.00 | 86 | |
| 20260508023201 | 8 | 152 | 6.4 | 12.9 | 0.00 | 0.00 | 0.00 | 86 | |
| 20260508023103 | 8 | 153 | 6.4 | 12.9 | 0.00 | 0.00 | 0.00 | 86 | |
| 20260508023001 | 8 | 155 | 4.8 | 12.9 | 0.00 | 0.00 | 0.00 | 86 | |
| 20260508022902 | 8 | 155 | 4.8 | 12.9 | 0.00 | 0.00 | 0.00 | 86 | |
| 20260508022823 | 8 | 156 | 4.8 | 12.9 | 0.00 | 0.00 | 0.00 | 86 | |
| 20260508022701 | 8 | 153 | 4.8 | 12.9 | 0.00 | 0.00 | 0.00 | 86 | |
| 20260508022601 | 8 | 152 | 4.8 | 12.9 | 0.00 | 0.00 | 0.00 | 86 | |
| 20260508022502 | 8 | 152 | 4.8 | 12.9 | 0.00 | 0.00 | 0.00 | 86 | |
| 20260508022402 | 8 | 151 | 6.4 | 12.9 | 0.00 | 0.00 | 0.00 | 86 | |
| 20260508022302 | 8 | 153 | 6.4 | 12.9 | 0.00 | 0.00 | 0.00 | 86 | |
| 20260508022201 | 8 | 153 | 6.4 | 12.9 | 0.00 | 0.00 | 0.00 | 86 | |
| 20260508022123 | 8 | 154 | 6.4 | 12.9 | 0.00 | 0.00 | 0.00 | 85 | |
| 20260508022002 | 8 | 151 | 8.0 | 12.9 | 0.00 | 0.00 | 0.00 | 86 | |
| 20260508021901 | 8 | 152 | 8.0 | 12.9 | 0.00 | 0.00 | 0.00 | 86 | |
| 20260508021802 | 8 | 152 | 6.4 | 12.9 | 0.00 | 0.00 | 0.00 | 86 | |
| 20260508021702 | 8 | 152 | 6.4 | 12.9 | 0.00 | 0.00 | 0.00 | 86 | |
| 20260508021601 | 8 | 155 | 6.4 | 12.9 | 0.00 | 0.00 | 0.00 | 86 | |
| 20260508021501 | 8 | 158 | 8.0 | 12.9 | 0.00 | 0.00 | 0.00 | 86 | |
| 20260508021401 | 8 | 158 | 8.0 | 12.9 | 0.00 | 0.00 | 0.00 | 85 | |
| 20260508021302 | 8 | 157 | 8.0 | 12.9 | 0.00 | 0.00 | 0.00 | 85 | |
| 20260508021201 | 8 | 157 | 8.0 | 12.9 | 0.00 | 0.00 | 0.00 | 85 | |
| 20260508021102 | 8 | 157 | 8.0 | 12.9 | 0.00 | 0.00 | 0.00 | 85 | |
| 20260508021002 | 8 | 160 | 8.0 | 14.5 | 0.00 | 0.00 | 0.00 | 85 | |
| 20260508020902 | 8 | 159 | 8.0 | 16.1 | 0.00 | 0.00 | 0.00 | 85 | |
| 20260508020802 | 8 | 160 | 9.7 | 16.1 | 0.00 | 0.00 | 0.00 | 85 | |
| 20260508020702 | 8 | 160 | 9.7 | 16.1 | 0.00 | 0.00 | 0.00 | 85 | |
| 20260508020602 | 8 | 160 | 9.7 | 16.1 | 0.00 | 0.00 | 0.00 | 85 | |
| 20260508020502 | 8 | 160 | 9.7 | 16.1 | 0.00 | 0.00 | 0.00 | 85 | |
| 20260508020401 | 8 | 159 | 9.7 | 16.1 | 0.00 | 0.00 | 0.00 | 85 | |
| 20260508020302 | 8 | 160 | 9.7 | 17.7 | 0.00 | 0.00 | 0.00 | 85 | |
| 20260508020223 | 8 | 160 | 9.7 | 17.7 | 0.00 | 0.00 | 0.00 | 85 | |
| 20260508020002 | 8 | 160 | 9.7 | 17.7 | 0.00 | 0.00 | 0.00 | 85 | |
| 20260508015902 | 8 | 160 | 9.7 | 17.7 | 0.00 | 0.00 | 0.00 | 85 | |
| 20260508015802 | 8 | 161 | 9.7 | 17.7 | 0.00 | 0.00 | 0.00 | 85 | |
| 20260508015702 | 8 | 161 | 9.7 | 17.7 | 0.00 | 0.00 | 0.00 | 85 | |
| 20260508015602 | 8 | 163 | 9.7 | 17.7 | 0.00 | 0.00 | 0.00 | 85 | |
| 20260508015501 | 8 | 163 | 11.3 | 17.7 | 0.00 | 0.00 | 0.00 | 85 | |
| 20260508015402 | 8 | 165 | 11.3 | 19.3 | 0.00 | 0.00 | 0.00 | 85 | |
| 20260508015305 | 8 | 165 | 11.3 | 19.3 | 0.00 | 0.00 | 0.00 | 85 | |
| 20260508015202 | 8 | 166 | 11.3 | 19.3 | 0.00 | 0.00 | 0.00 | 85 | |
| 20260508015102 | 8 | 168 | 9.7 | 19.3 | 0.00 | 0.00 | 0.00 | 85 | |
| 20260508015002 | 8 | 167 | 9.7 | 19.3 | 0.00 | 0.00 | 0.00 | 85 | |
| 20260508014901 | 8 | 167 | 9.7 | 19.3 | 0.00 | 0.00 | 0.00 | 85 | |
| 20260508014802 | 8 | 168 | 9.7 | 19.3 | 0.00 | 0.00 | 0.00 | 85 | |
| 20260508014702 | 8 | 167 | 9.7 | 19.3 | 0.00 | 0.00 | 0.00 | 85 | |
| 20260508014623 | 8 | 167 | 9.7 | 19.3 | 0.00 | 0.00 | 0.00 | 85 | |
| 20260508014502 | 8 | 166 | 9.7 | 19.3 | 0.00 | 0.00 | 0.00 | 85 | |
| 20260508014402 | 8 | 166 | 9.7 | 17.7 | 0.00 | 0.00 | 0.00 | 85 | |
| 20260508014302 | 8 | 166 | 9.7 | 17.7 | 0.00 | 0.00 | 0.00 | 85 | |
| 20260508014223 | 8 | 166 | 9.7 | 17.7 | 0.00 | 0.00 | 0.00 | 85 | |
| 20260508014101 | 8 | 165 | 9.7 | 17.7 | 0.00 | 0.00 | 0.00 | 85 | |
| 20260508014002 | 8 | 166 | 9.7 | 17.7 | 0.00 | 0.00 | 0.00 | 85 | |
| 20260508013902 | 8 | 166 | 9.7 | 17.7 | 0.00 | 0.00 | 0.00 | 84 | |
| 20260508013802 | 8 | 165 | 9.7 | 17.7 | 0.00 | 0.00 | 0.00 | 84 | |
| 20260508013702 | 8 | 166 | 9.7 | 17.7 | 0.00 | 0.00 | 0.00 | 84 | |
| 20260508013602 | 8 | 166 | 9.7 | 19.3 | 0.00 | 0.00 | 0.00 | 84 | |
| 20260508013502 | 8 | 166 | 9.7 | 19.3 | 0.00 | 0.00 | 0.00 | 84 | |
| 20260508013402 | 8 | 165 | 9.7 | 19.3 | 0.00 | 0.00 | 0.00 | 84 | |
| 20260508013301 | 8 | 165 | 11.3 | 19.3 | 0.00 | 0.00 | 0.00 | 84 | |
| 20260508013223 | 8 | 165 | 11.3 | 19.3 | 0.00 | 0.00 | 0.00 | 84 | |
| 20260508013102 | 8 | 165 | 11.3 | 19.3 | 0.00 | 0.00 | 0.00 | 84 | |
| 20260508013002 | 8 | 165 | 11.3 | 19.3 | 0.00 | 0.00 | 0.00 | 84 | |
| 20260508012903 | 8 | 164 | 11.3 | 19.3 | 0.00 | 0.00 | 0.00 | 84 | |
| 20260508012801 | 8 | 165 | 12.9 | 19.3 | 0.00 | 0.00 | 0.00 | 84 | |
| 20260508012703 | 8 | 165 | 12.9 | 19.3 | 0.00 | 0.00 | 0.00 | 84 | |
| 20260508012623 | 8 | 164 | 12.9 | 19.3 | 0.00 | 0.00 | 0.00 | 84 | |
| 20260508012502 | 8 | 165 | 12.9 | 19.3 | 0.00 | 0.00 | 0.00 | 84 | |
| 20260508012423 | 8 | 165 | 12.9 | 19.3 | 0.00 | 0.00 | 0.00 | 84 | |
| 20260508012306 | 8 | 165 | 12.9 | 22.5 | 0.00 | 0.00 | 0.00 | 84 | |
| 20260508012202 | 8 | 165 | 12.9 | 22.5 | 0.00 | 0.00 | 0.00 | 84 | |
| 20260508012102 | 8 | 165 | 12.9 | 22.5 | 0.00 | 0.00 | 0.00 | 84 | |
| 20260508012023 | 8 | 165 | 12.9 | 22.5 | 0.00 | 0.00 | 0.00 | 84 | |
| 20260508011923 | 8 | 165 | 12.9 | 22.5 | 0.00 | 0.00 | 0.00 | 84 | |
| 20260508011802 | 8 | 164 | 12.9 | 22.5 | 0.00 | 0.00 | 0.00 | 84 | |
| 20260508011702 | 8 | 164 | 12.9 | 22.5 | 0.00 | 0.00 | 0.00 | 84 | |
| 20260508011602 | 8 | 164 | 12.9 | 22.5 | 0.00 | 0.00 | 0.00 | 84 | |
| 20260508011502 | 8 | 164 | 12.9 | 22.5 | 0.00 | 0.00 | 0.00 | 84 | |
| 20260508011423 | 8 | 163 | 12.9 | 22.5 | 0.00 | 0.00 | 0.00 | 84 | |
| 20260508011302 | 8 | 163 | 12.9 | 19.3 | 0.00 | 0.00 | 0.00 | 84 | |
| 20260508011202 | 8 | 163 | 12.9 | 19.3 | 0.00 | 0.00 | 0.00 | 84 | |
| 20260508011101 | 8 | 163 | 12.9 | 19.3 | 0.00 | 0.00 | 0.00 | 83 | |
| 20260508011002 | 8 | 164 | 12.9 | 19.3 | 0.00 | 0.00 | 0.00 | 83 | |
| 20260508010923 | 8 | 164 | 12.9 | 19.3 | 0.00 | 0.00 | 0.00 | 84 | |
| 20260508010802 | 8 | 165 | 12.9 | 19.3 | 0.00 | 0.00 | 0.00 | 84 | |
| 20260508010702 | 9 | 165 | 12.9 | 19.3 | 0.00 | 0.00 | 0.00 | 84 | |
| 20260508010623 | 8 | 165 | 12.9 | 19.3 | 0.00 | 0.00 | 0.00 | 84 | |
| 20260508010502 | 8 | 165 | 12.9 | 19.3 | 0.00 | 0.00 | 0.00 | 84 | |
| 20260508010402 | 8 | 165 | 12.9 | 19.3 | 0.00 | 0.00 | 0.00 | 84 | |
| 20260508010323 | 9 | 165 | 11.3 | 19.3 | 0.00 | 0.00 | 0.00 | 83 | |
| 20260508010202 | 9 | 165 | 11.3 | 19.3 | 0.00 | 0.00 | 0.00 | 83 | |
| 20260508010002 | 9 | 165 | 11.3 | 19.3 | 0.00 | 0.00 | 0.00 | 83 | |
| 20260508005902 | 9 | 165 | 11.3 | 19.3 | 0.00 | 0.00 | 0.00 | 83 | |
| 20260508005801 | 9 | 164 | 11.3 | 19.3 | 0.00 | 0.00 | 0.00 | 83 | |
| 20260508005702 | 9 | 164 | 11.3 | 19.3 | 0.00 | 0.00 | 0.00 | 83 | |
| 20260508005602 | 9 | 164 | 11.3 | 16.1 | 0.00 | 0.00 | 0.00 | 83 | |
| 20260508005502 | 9 | 165 | 11.3 | 16.1 | 0.00 | 0.00 | 0.00 | 83 | |
| 20260508005402 | 9 | 165 | 11.3 | 17.7 | 0.00 | 0.00 | 0.00 | 83 | |
| 20260508005305 | 9 | 165 | 11.3 | 17.7 | 0.00 | 0.00 | 0.00 | 83 | |
| 20260508005223 | 9 | 165 | 11.3 | 17.7 | 0.00 | 0.00 | 0.00 | 83 | |
| 20260508005102 | 9 | 164 | 11.3 | 19.3 | 0.00 | 0.00 | 0.00 | 83 | |
| 20260508005023 | 9 | 165 | 11.3 | 19.3 | 0.00 | 0.00 | 0.00 | 83 | |
| 20260508004902 | 9 | 165 | 11.3 | 19.3 | 0.00 | 0.00 | 0.00 | 83 | |
| 20260508004823 | 9 | 165 | 11.3 | 19.3 | 0.00 | 0.00 | 0.00 | 83 | |
| 20260508004702 | 9 | 165 | 11.3 | 19.3 | 0.00 | 0.00 | 0.00 | 83 | |
| 20260508004623 | 9 | 165 | 11.3 | 19.3 | 0.00 | 0.00 | 0.00 | 83 | |
| 20260508004502 | 9 | 163 | 11.3 | 19.3 | 0.00 | 0.00 | 0.00 | 83 | |
| 20260508004423 | 9 | 163 | 12.9 | 19.3 | 0.00 | 0.00 | 0.00 | 83 | |
| 20260508004323 | 9 | 163 | 12.9 | 19.3 | 0.00 | 0.00 | 0.00 | 83 | |
| 20260508004202 | 9 | 163 | 12.9 | 19.3 | 0.00 | 0.00 | 0.00 | 83 | |
| 20260508004123 | 9 | 164 | 12.9 | 19.3 | 0.00 | 0.00 | 0.00 | 83 | |
| 20260508004002 | 9 | 163 | 12.9 | 19.3 | 0.00 | 0.00 | 0.00 | 83 | |
| 20260508003902 | 9 | 163 | 12.9 | 20.9 | 0.00 | 0.00 | 0.00 | 83 | |
| 20260508003803 | 9 | 164 | 12.9 | 20.9 | 0.00 | 0.00 | 0.00 | 83 | |
| 20260508003702 | 9 | 165 | 12.9 | 20.9 | 0.00 | 0.00 | 0.00 | 83 | |
| 20260508003602 | 9 | 166 | 12.9 | 20.9 | 0.00 | 0.00 | 0.00 | 83 | |
| 20260508003502 | 9 | 165 | 12.9 | 20.9 | 0.00 | 0.00 | 0.00 | 83 | |
| 20260508003423 | 9 | 165 | 11.3 | 20.9 | 0.00 | 0.00 | 0.00 | 83 | |
| 20260508003302 | 9 | 166 | 11.3 | 20.9 | 0.00 | 0.00 | 0.00 | 83 | |
| 20260508003223 | 9 | 166 | 11.3 | 20.9 | 0.00 | 0.00 | 0.00 | 83 | |
| 20260508003102 | 9 | 166 | 11.3 | 20.9 | 0.00 | 0.00 | 0.00 | 83 | |
| 20260508003002 | 9 | 168 | 11.3 | 20.9 | 0.00 | 0.00 | 0.00 | 83 | |
| 20260508002902 | 9 | 169 | 11.3 | 17.7 | 0.00 | 0.00 | 0.00 | 83 | |
| 20260508002802 | 9 | 168 | 11.3 | 17.7 | 0.00 | 0.00 | 0.00 | 83 | |
| 20260508002702 | 9 | 168 | 11.3 | 17.7 | 0.00 | 0.00 | 0.00 | 83 | |
| 20260508002602 | 9 | 167 | 11.3 | 17.7 | 0.00 | 0.00 | 0.00 | 83 | |
| 20260508002502 | 9 | 168 | 11.3 | 17.7 | 0.00 | 0.00 | 0.00 | 83 | |
| 20260508002402 | 9 | 167 | 11.3 | 17.7 | 0.00 | 0.00 | 0.00 | 83 | |
| 20260508002302 | 9 | 167 | 11.3 | 17.7 | 0.00 | 0.00 | 0.00 | 83 | |
| 20260508002201 | 9 | 167 | 12.9 | 17.7 | 0.00 | 0.00 | 0.00 | 83 | |
| 20260508002103 | 9 | 166 | 12.9 | 19.3 | 0.00 | 0.00 | 0.00 | 83 | |
| 20260508002002 | 9 | 165 | 12.9 | 19.3 | 0.00 | 0.00 | 0.00 | 83 | |
| 20260508001902 | 9 | 165 | 12.9 | 19.3 | 0.00 | 0.00 | 0.00 | 83 | |
| 20260508001802 | 9 | 164 | 12.9 | 19.3 | 0.00 | 0.00 | 0.00 | 83 | |
| 20260508001702 | 9 | 164 | 12.9 | 19.3 | 0.00 | 0.00 | 0.00 | 82 | |
| 20260508001602 | 9 | 164 | 12.9 | 19.3 | 0.00 | 0.00 | 0.00 | 82 | |
| 20260508001502 | 9 | 164 | 12.9 | 19.3 | 0.00 | 0.00 | 0.00 | 82 | |
| 20260508001423 | 9 | 164 | 12.9 | 19.3 | 0.00 | 0.00 | 0.00 | 82 | |
| 20260508001323 | 9 | 165 | 11.3 | 19.3 | 0.00 | 0.00 | 0.00 | 82 | |
| 20260508001202 | 9 | 164 | 11.3 | 19.3 | 0.00 | 0.00 | 0.00 | 82 | |
| 20260508001102 | 9 | 164 | 12.9 | 19.3 | 0.00 | 0.00 | 0.00 | 82 | |
| 20260508001023 | 9 | 164 | 11.3 | 19.3 | 0.00 | 0.00 | 0.00 | 82 | |
| 20260508000923 | 9 | 165 | 12.9 | 19.3 | 0.00 | 0.00 | 0.00 | 82 | |
| 20260508000802 | 9 | 164 | 12.9 | 19.3 | 0.00 | 0.00 | 0.00 | 82 | |
| 20260508000702 | 9 | 164 | 12.9 | 19.3 | 0.00 | 0.00 | 0.00 | 82 | |
| 20260508000623 | 9 | 165 | 12.9 | 19.3 | 0.00 | 0.00 | 0.00 | 82 | |
| 20260508000502 | 9 | 165 | 12.9 | 19.3 | 0.00 | 0.00 | 0.00 | 82 | |
| 20260508000404 | 9 | 164 | 12.9 | 19.3 | 0.00 | 0.00 | 0.00 | 82 | |
| 20260508000323 | 9 | 165 | 12.9 | 19.3 | 0.00 | 0.00 | 0.00 | 82 | |
| 20260508000204 | 9 | 165 | 12.9 | 19.3 | 0.00 | 0.00 | 0.00 | 82 | |
| 20260508000023 | 9 | 166 | 14.5 | 19.3 | 0.00 | 0.00 | 0.00 | 82 | |
| 20260507235902 | 9 | 167 | 14.5 | 22.5 | 0.00 | 0.00 | 0.00 | 82 | |
| 20260507235802 | 10 | 167 | 14.5 | 22.5 | 0.00 | 0.00 | 0.00 | 82 | |
| 20260507235702 | 10 | 167 | 14.5 | 22.5 | 0.00 | 0.00 | 0.00 | 82 | |
| 20260507235602 | 10 | 168 | 14.5 | 22.5 | 0.00 | 0.00 | 0.00 | 82 | |
| 20260507235502 | 10 | 168 | 14.5 | 22.5 | 0.00 | 0.00 | 0.00 | 82 | |
| 20260507235423 | 10 | 168 | 14.5 | 22.5 | 0.00 | 0.00 | 0.00 | 82 | |
| 20260507235306 | 10 | 169 | 14.5 | 22.5 | 0.00 | 0.00 | 0.00 | 82 | |
| 20260507235203 | 10 | 170 | 14.5 | 22.5 | 0.00 | 0.00 | 0.00 | 82 | |
| 20260507235102 | 10 | 169 | 14.5 | 22.5 | 0.00 | 0.00 | 0.00 | 82 | |
| 20260507235002 | 10 | 170 | 14.5 | 22.5 | 0.00 | 0.00 | 0.00 | 82 | |
| 20260507234902 | 10 | 169 | 14.5 | 22.5 | 0.00 | 0.00 | 0.00 | 82 | |
| 20260507234823 | 10 | 170 | 12.9 | 22.5 | 0.00 | 0.00 | 0.00 | 82 | |
| 20260507234723 | 10 | 171 | 12.9 | 20.9 | 0.00 | 0.00 | 0.00 | 82 | |
| 20260507234602 | 10 | 170 | 12.9 | 19.3 | 0.00 | 0.00 | 0.00 | 82 | |
| 20260507234502 | 10 | 171 | 12.9 | 20.9 | 0.00 | 0.00 | 0.00 | 82 | |
| 20260507234402 | 10 | 172 | 12.9 | 20.9 | 0.00 | 0.00 | 0.00 | 82 | |
| 20260507234302 | 10 | 172 | 12.9 | 20.9 | 0.00 | 0.00 | 0.00 | 82 | |
| 20260507234202 | 10 | 172 | 12.9 | 20.9 | 0.00 | 0.00 | 0.00 | 82 | |
| 20260507234102 | 10 | 172 | 12.9 | 20.9 | 0.00 | 0.00 | 0.00 | 82 | |
| 20260507234023 | 10 | 172 | 12.9 | 20.9 | 0.00 | 0.00 | 0.00 | 81 | |
| 20260507233902 | 10 | 173 | 12.9 | 20.9 | 0.00 | 0.00 | 0.00 | 81 | |
| 20260507233802 | 10 | 172 | 14.5 | 20.9 | 0.00 | 0.00 | 0.00 | 81 | |
| 20260507233702 | 10 | 174 | 14.5 | 20.9 | 0.00 | 0.00 | 0.00 | 81 | |
| 20260507233623 | 10 | 174 | 14.5 | 20.9 | 0.00 | 0.00 | 0.00 | 81 | |
| 20260507233523 | 10 | 175 | 14.5 | 20.9 | 0.00 | 0.00 | 0.00 | 81 | |
| 20260507233402 | 10 | 174 | 14.5 | 22.5 | 0.00 | 0.00 | 0.00 | 81 | |
| 20260507233302 | 10 | 173 | 14.5 | 22.5 | 0.00 | 0.00 | 0.00 | 81 | |
| 20260507233203 | 10 | 173 | 14.5 | 22.5 | 0.00 | 0.00 | 0.00 | 81 | |
| 20260507233102 | 10 | 173 | 14.5 | 22.5 | 0.00 | 0.00 | 0.00 | 81 | |
| 20260507233023 | 10 | 174 | 14.5 | 22.5 | 0.00 | 0.00 | 0.00 | 81 | |
| 20260507232902 | 10 | 174 | 14.5 | 22.5 | 0.00 | 0.00 | 0.00 | 81 | |
| 20260507232802 | 10 | 174 | 14.5 | 24.1 | 0.00 | 0.00 | 0.00 | 81 | |
| 20260507232702 | 10 | 173 | 14.5 | 24.1 | 0.00 | 0.00 | 0.00 | 81 | |
| 20260507232602 | 10 | 173 | 14.5 | 24.1 | 0.00 | 0.00 | 0.00 | 81 | |
| 20260507232523 | 10 | 173 | 14.5 | 24.1 | 0.00 | 0.00 | 0.00 | 81 | |
| 20260507232423 | 10 | 173 | 14.5 | 24.1 | 0.00 | 0.00 | 0.00 | 81 | |
| 20260507232306 | 10 | 173 | 14.5 | 24.1 | 0.00 | 0.00 | 0.00 | 81 | |
| 20260507232202 | 10 | 174 | 16.1 | 24.1 | 0.00 | 0.00 | 0.00 | 81 | |
| 20260507232123 | 10 | 175 | 16.1 | 24.1 | 0.00 | 0.00 | 0.00 | 81 | |
| 20260507232002 | 10 | 174 | 16.1 | 24.1 | 0.00 | 0.00 | 0.00 | 81 | |
| 20260507231902 | 10 | 174 | 16.1 | 24.1 | 0.00 | 0.00 | 0.00 | 81 | |
| 20260507231802 | 10 | 174 | 14.5 | 24.1 | 0.00 | 0.00 | 0.00 | 81 | |
| 20260507231723 | 10 | 174 | 14.5 | 24.1 | 0.00 | 0.00 | 0.00 | 81 | |
| 20260507231602 | 10 | 175 | 14.5 | 24.1 | 0.00 | 0.00 | 0.00 | 81 | |
| 20260507231502 | 10 | 175 | 14.5 | 24.1 | 0.00 | 0.00 | 0.00 | 81 | |
| 20260507231402 | 10 | 176 | 14.5 | 24.1 | 0.00 | 0.00 | 0.00 | 81 | |
| 20260507231302 | 10 | 176 | 14.5 | 24.1 | 0.00 | 0.00 | 0.00 | 82 | |
| 20260507231223 | 10 | 176 | 14.5 | 22.5 | 0.00 | 0.00 | 0.00 | 82 | |
| 20260507231102 | 10 | 176 | 14.5 | 22.5 | 0.00 | 0.00 | 0.00 | 82 | |
| 20260507231002 | 10 | 176 | 12.9 | 22.5 | 0.00 | 0.00 | 0.00 | 82 | |
| 20260507230902 | 10 | 176 | 12.9 | 20.9 | 0.00 | 0.00 | 0.00 | 82 | |
| 20260507230802 | 10 | 176 | 12.9 | 20.9 | 0.00 | 0.00 | 0.00 | 82 | |
| 20260507230702 | 10 | 177 | 12.9 | 20.9 | 0.00 | 0.00 | 0.00 | 82 | |
| 20260507230602 | 10 | 176 | 12.9 | 20.9 | 0.00 | 0.00 | 0.00 | 82 | |
| 20260507230502 | 10 | 176 | 12.9 | 20.9 | 0.00 | 0.00 | 0.00 | 82 | |
| 20260507230402 | 10 | 176 | 12.9 | 20.9 | 0.00 | 0.00 | 0.00 | 82 | |
| 20260507230302 | 10 | 175 | 11.3 | 20.9 | 0.00 | 0.00 | 0.00 | 82 | |
| 20260507230202 | 9 | 174 | 11.3 | 20.9 | 0.00 | 0.00 | 0.00 | 82 | |
| 20260507230024 | 9 | 173 | 11.3 | 19.3 | 0.00 | 0.00 | 0.00 | 82 | |
| 20260507225902 | 9 | 172 | 11.3 | 19.3 | 0.00 | 0.00 | 0.00 | 82 | |
| 20260507225802 | 9 | 171 | 11.3 | 19.3 | 0.00 | 0.00 | 0.00 | 83 | |
| 20260507225724 | 9 | 170 | 11.3 | 19.3 | 0.00 | 0.00 | 0.00 | 83 | |
| 20260507225602 | 9 | 169 | 11.3 | 19.3 | 0.00 | 0.00 | 0.00 | 83 | |
| 20260507225502 | 9 | 168 | 12.9 | 19.3 | 0.00 | 0.00 | 0.00 | 83 | |
| 20260507225423 | 9 | 167 | 12.9 | 19.3 | 0.00 | 0.00 | 0.00 | 83 | |
| 20260507225305 | 9 | 167 | 11.3 | 19.3 | 0.00 | 0.00 | 0.00 | 83 | |
| 20260507225202 | 9 | 166 | 11.3 | 19.3 | 0.00 | 0.00 | 0.00 | 83 | |
| 20260507225102 | 9 | 166 | 11.3 | 19.3 | 0.00 | 0.00 | 0.00 | 83 | |
| 20260507225002 | 9 | 166 | 11.3 | 19.3 | 0.00 | 0.00 | 0.00 | 83 | |
| 20260507224902 | 9 | 165 | 11.3 | 19.3 | 0.00 | 0.00 | 0.00 | 83 | |
| 20260507224802 | 9 | 165 | 11.3 | 19.3 | 0.00 | 0.00 | 0.00 | 83 | |
| 20260507224702 | 9 | 165 | 11.3 | 19.3 | 0.00 | 0.00 | 0.00 | 84 | |
| 20260507224602 | 9 | 165 | 11.3 | 19.3 | 0.00 | 0.00 | 0.00 | 84 | |
| 20260507224504 | 9 | 165 | 11.3 | 19.3 | 0.00 | 0.00 | 0.00 | 84 | |
| 20260507224402 | 9 | 164 | 11.3 | 17.7 | 0.00 | 0.00 | 0.00 | 84 | |
| 20260507224302 | 9 | 163 | 11.3 | 17.7 | 0.00 | 0.00 | 0.00 | 84 | |
| 20260507224202 | 9 | 164 | 11.3 | 17.7 | 0.00 | 0.00 | 0.00 | 84 | |
| 20260507224102 | 9 | 163 | 11.3 | 17.7 | 0.00 | 0.00 | 0.00 | 84 | |
| 20260507224002 | 9 | 163 | 11.3 | 17.7 | 0.00 | 0.00 | 0.00 | 84 | |
| 20260507223902 | 9 | 163 | 11.3 | 17.7 | 0.00 | 0.00 | 0.00 | 84 | |
| 20260507223802 | 9 | 163 | 11.3 | 19.3 | 0.00 | 0.00 | 0.00 | 84 | |
| 20260507223702 | 9 | 163 | 11.3 | 19.3 | 0.00 | 0.00 | 0.00 | 84 | |
| 20260507223602 | 9 | 163 | 11.3 | 19.3 | 0.00 | 0.00 | 0.00 | 84 | |
| 20260507223502 | 9 | 164 | 11.3 | 19.3 | 0.00 | 0.00 | 0.00 | 84 | |
| 20260507223402 | 9 | 164 | 11.3 | 19.3 | 0.00 | 0.00 | 0.00 | 84 | |
| 20260507223302 | 9 | 164 | 11.3 | 19.3 | 0.00 | 0.00 | 0.00 | 85 | |
| 20260507223202 | 9 | 164 | 11.3 | 19.3 | 0.00 | 0.00 | 0.00 | 85 | |
| 20260507223102 | 9 | 165 | 11.3 | 19.3 | 0.00 | 0.00 | 0.00 | 85 | |
| 20260507223002 | 9 | 165 | 12.9 | 19.3 | 0.00 | 0.00 | 0.00 | 85 | |
| 20260507222902 | 9 | 165 | 12.9 | 19.3 | 0.00 | 0.00 | 0.00 | 85 | |
| 20260507222802 | 9 | 164 | 12.9 | 19.3 | 0.00 | 0.00 | 0.00 | 85 | |
| 20260507222702 | 8 | 165 | 12.9 | 19.3 | 0.00 | 0.00 | 0.00 | 86 | |
| 20260507222602 | 8 | 166 | 12.9 | 19.3 | 0.00 | 0.00 | 0.00 | 85 | |
| 20260507222502 | 8 | 165 | 12.9 | 19.3 | 0.00 | 0.00 | 0.00 | 86 | |
| 20260507222423 | 8 | 165 | 11.3 | 19.3 | 0.00 | 0.00 | 0.00 | 86 | |
| 20260507222305 | 8 | 165 | 11.3 | 17.7 | 0.00 | 0.00 | 0.00 | 86 | |
| 20260507222202 | 8 | 165 | 11.3 | 17.7 | 0.00 | 0.00 | 0.00 | 86 | |
| 20260507222102 | 8 | 164 | 11.3 | 17.7 | 0.00 | 0.00 | 0.00 | 86 | |
| 20260507222023 | 8 | 164 | 11.3 | 17.7 | 0.00 | 0.00 | 0.00 | 86 | |
| 20260507221902 | 8 | 164 | 9.7 | 17.7 | 0.00 | 0.00 | 0.00 | 86 | |
| 20260507221802 | 8 | 164 | 9.7 | 17.7 | 0.00 | 0.00 | 0.00 | 86 | |
| 20260507221702 | 8 | 163 | 9.7 | 17.7 | 0.00 | 0.00 | 0.00 | 86 | |
| 20260507221602 | 8 | 163 | 9.7 | 16.1 | 0.00 | 0.00 | 0.00 | 86 | |
| 20260507221502 | 8 | 163 | 9.7 | 16.1 | 0.00 | 0.00 | 0.00 | 86 | |
| 20260507221402 | 8 | 162 | 9.7 | 16.1 | 0.00 | 0.00 | 0.00 | 87 | |
| 20260507221302 | 8 | 164 | 9.7 | 14.5 | 0.00 | 0.00 | 0.00 | 87 | |
| 20260507221202 | 8 | 163 | 9.7 | 14.5 | 0.00 | 0.00 | 0.00 | 87 | |
| 20260507221102 | 8 | 163 | 9.7 | 14.5 | 0.00 | 0.00 | 0.00 | 87 | |
| 20260507221023 | 8 | 163 | 9.7 | 12.9 | 0.00 | 0.00 | 0.00 | 87 | |
| 20260507220923 | 8 | 162 | 9.7 | 12.9 | 0.00 | 0.00 | 0.00 | 87 | |
| 20260507220802 | 8 | 163 | 9.7 | 12.9 | 0.00 | 0.00 | 0.00 | 87 | |
| 20260507220702 | 8 | 162 | 9.7 | 14.5 | 0.00 | 0.00 | 0.00 | 87 | |
| 20260507220602 | 8 | 161 | 9.7 | 14.5 | 0.00 | 0.00 | 0.00 | 87 | |
| 20260507220502 | 8 | 161 | 9.7 | 14.5 | 0.00 | 0.00 | 0.00 | 87 | |
| 20260507220402 | 8 | 161 | 8.0 | 14.5 | 0.00 | 0.00 | 0.00 | 87 | |
| 20260507220302 | 8 | 158 | 8.0 | 14.5 | 0.00 | 0.00 | 0.00 | 87 | |
| 20260507220223 | 8 | 157 | 8.0 | 14.5 | 0.00 | 0.00 | 0.00 | 87 | |
| 20260507220002 | 8 | 152 | 8.0 | 14.5 | 0.00 | 0.00 | 0.00 | 87 | |
| 20260507215903 | 8 | 152 | 8.0 | 14.5 | 0.00 | 0.00 | 0.00 | 87 | |
| 20260507215802 | 8 | 150 | 6.4 | 14.5 | 0.00 | 0.00 | 0.00 | 87 | |
| 20260507215702 | 8 | 150 | 6.4 | 14.5 | 0.00 | 0.00 | 0.00 | 87 | |
| 20260507215602 | 8 | 150 | 6.4 | 14.5 | 0.00 | 0.00 | 0.00 | 87 | |
| 20260507215502 | 8 | 149 | 6.4 | 14.5 | 0.00 | 0.00 | 0.00 | 87 | |
| 20260507215423 | 8 | 149 | 6.4 | 14.5 | 0.00 | 0.00 | 0.00 | 87 | |
| 20260507215302 | 8 | 150 | 6.4 | 12.9 | 0.00 | 0.00 | 0.00 | 87 | |
| 20260507215202 | 8 | 151 | 6.4 | 11.3 | 0.00 | 0.00 | 0.00 | 87 | |
| 20260507215123 | 8 | 153 | 6.4 | 11.3 | 0.00 | 0.00 | 0.00 | 87 | |
| 20260507215024 | 8 | 155 | 6.4 | 11.3 | 0.00 | 0.00 | 0.00 | 87 | |
| 20260507214902 | 8 | 158 | 4.8 | 11.3 | 0.00 | 0.00 | 0.00 | 87 | |
| 20260507214823 | 8 | 158 | 4.8 | 11.3 | 0.00 | 0.00 | 0.00 | 86 | |
| 20260507214702 | 8 | 157 | 4.8 | 11.3 | 0.00 | 0.00 | 0.00 | 86 | |
| 20260507214602 | 8 | 156 | 4.8 | 11.3 | 0.00 | 0.00 | 0.00 | 86 | |
| 20260507214502 | 8 | 155 | 4.8 | 11.3 | 0.00 | 0.00 | 0.00 | 86 | |
| 20260507214402 | 8 | 154 | 4.8 | 11.3 | 0.00 | 0.00 | 0.00 | 86 | |
| 20260507214302 | 8 | 152 | 4.8 | 11.3 | 0.00 | 0.00 | 0.00 | 86 | |
| 20260507214202 | 8 | 151 | 4.8 | 11.3 | 0.00 | 0.00 | 0.00 | 86 | |
| 20260507214102 | 8 | 149 | 4.8 | 11.3 | 0.00 | 0.00 | 0.00 | 86 | |
| 20260507214002 | 8 | 148 | 4.8 | 11.3 | 0.00 | 0.00 | 0.00 | 86 | |
| 20260507213902 | 8 | 146 | 6.4 | 11.3 | 0.00 | 0.00 | 0.00 | 86 | |
| 20260507213802 | 8 | 148 | 6.4 | 11.3 | 0.00 | 0.00 | 0.00 | 86 | |
| 20260507213723 | 8 | 147 | 6.4 | 11.3 | 0.00 | 0.00 | 0.00 | 86 | |
| 20260507213602 | 8 | 146 | 6.4 | 11.3 | 0.00 | 0.00 | 0.00 | 86 | |
| 20260507213502 | 8 | 147 | 6.4 | 11.3 | 0.00 | 0.00 | 0.00 | 86 | |
| 20260507213402 | 8 | 149 | 6.4 | 11.3 | 0.00 | 0.00 | 0.00 | 86 | |
| 20260507213323 | 8 | 149 | 6.4 | 11.3 | 0.00 | 0.00 | 0.00 | 86 | |
| 20260507213202 | 8 | 150 | 6.4 | 11.3 | 0.00 | 0.00 | 0.00 | 86 | |
| 20260507213102 | 8 | 149 | 6.4 | 11.3 | 0.00 | 0.00 | 0.00 | 85 | |
| 20260507213002 | 8 | 149 | 6.4 | 11.3 | 0.00 | 0.00 | 0.00 | 85 | |
| 20260507212902 | 8 | 150 | 6.4 | 11.3 | 0.00 | 0.00 | 0.00 | 85 | |
| 20260507212802 | 8 | 149 | 6.4 | 11.3 | 0.00 | 0.00 | 0.00 | 85 | |
| 20260507212702 | 8 | 150 | 6.4 | 11.3 | 0.00 | 0.00 | 0.00 | 85 | |
| 20260507212623 | 8 | 150 | 6.4 | 11.3 | 0.00 | 0.00 | 0.00 | 85 | |
| 20260507212502 | 8 | 149 | 6.4 | 11.3 | 0.00 | 0.00 | 0.00 | 85 | |
| 20260507212402 | 8 | 148 | 6.4 | 11.3 | 0.00 | 0.00 | 0.00 | 85 | |
| 20260507212306 | 8 | 146 | 6.4 | 11.3 | 0.00 | 0.00 | 0.00 | 85 | |
| 20260507212202 | 8 | 147 | 6.4 | 11.3 | 0.00 | 0.00 | 0.00 | 85 | |
| 20260507212123 | 8 | 147 | 6.4 | 11.3 | 0.00 | 0.00 | 0.00 | 85 | |
| 20260507212002 | 8 | 146 | 6.4 | 11.3 | 0.00 | 0.00 | 0.00 | 85 | |
| 20260507211902 | 8 | 146 | 4.8 | 11.3 | 0.00 | 0.00 | 0.00 | 85 | |
| 20260507211802 | 8 | 145 | 4.8 | 11.3 | 0.00 | 0.00 | 0.00 | 85 | |
| 20260507211702 | 8 | 145 | 4.8 | 11.3 | 0.00 | 0.00 | 0.00 | 85 | |
| 20260507211602 | 8 | 145 | 4.8 | 11.3 | 0.00 | 0.00 | 0.00 | 85 | |
| 20260507211502 | 8 | 144 | 4.8 | 11.3 | 0.00 | 0.00 | 0.00 | 85 | |
| 20260507211402 | 8 | 145 | 4.8 | 11.3 | 0.00 | 0.00 | 0.00 | 85 | |
| 20260507211302 | 8 | 144 | 4.8 | 11.3 | 0.00 | 0.00 | 0.00 | 85 | |
| 20260507211202 | 8 | 142 | 4.8 | 11.3 | 0.00 | 0.00 | 0.00 | 85 | |
| 20260507211123 | 8 | 141 | 4.8 | 11.3 | 0.00 | 0.00 | 0.00 | 84 | |
| 20260507211002 | 8 | 139 | 4.8 | 11.3 | 0.00 | 0.00 | 0.00 | 85 | |
| 20260507210902 | 8 | 138 | 4.8 | 11.3 | 0.00 | 0.00 | 0.00 | 84 | |
| 20260507210823 | 8 | 138 | 4.8 | 11.3 | 0.00 | 0.00 | 0.00 | 84 | |
| 20260507210702 | 8 | 137 | 4.8 | 11.3 | 0.00 | 0.00 | 0.00 | 84 | |
| 20260507210602 | 8 | 136 | 4.8 | 11.3 | 0.00 | 0.00 | 0.00 | 84 | |
| 20260507210502 | 8 | 135 | 4.8 | 11.3 | 0.00 | 0.00 | 0.00 | 84 | |
| 20260507210402 | 8 | 134 | 4.8 | 11.3 | 0.00 | 0.00 | 0.00 | 84 | |
| 20260507210302 | 8 | 135 | 4.8 | 9.7 | 0.00 | 0.00 | 0.00 | 84 | |
| 20260507210202 | 8 | 136 | 4.8 | 9.7 | 0.00 | 0.00 | 0.00 | 84 | |
| 20260507210023 | 8 | 136 | 4.8 | 9.7 | 0.00 | 0.00 | 0.00 | 84 | |
| 20260507205902 | 8 | 136 | 4.8 | 9.7 | 0.00 | 0.00 | 0.00 | 84 | |
| 20260507205802 | 8 | 135 | 4.8 | 9.7 | 0.00 | 0.00 | 0.00 | 84 | |
| 20260507205702 | 8 | 136 | 6.4 | 9.7 | 0.00 | 0.00 | 0.00 | 84 | |
| 20260507205602 | 8 | 134 | 6.4 | 9.7 | 0.00 | 0.00 | 0.00 | 84 | |
| 20260507205502 | 9 | 134 | 6.4 | 9.7 | 0.00 | 0.00 | 0.00 | 84 | |
| 20260507205402 | 9 | 134 | 6.4 | 9.7 | 0.00 | 0.00 | 0.00 | 84 | |
| 20260507205323 | 9 | 133 | 6.4 | 9.7 | 0.00 | 0.00 | 0.00 | 84 | |
| 20260507205202 | 9 | 132 | 6.4 | 9.7 | 0.00 | 0.00 | 0.00 | 84 | |
| 20260507205102 | 9 | 133 | 6.4 | 11.3 | 0.00 | 0.00 | 0.00 | 83 | |
| 20260507205002 | 9 | 132 | 6.4 | 11.3 | 0.00 | 0.00 | 0.00 | 83 | |
| 20260507204902 | 9 | 133 | 6.4 | 11.3 | 0.00 | 0.00 | 0.00 | 83 | |
| 20260507204802 | 9 | 133 | 6.4 | 11.3 | 0.00 | 0.00 | 0.00 | 83 | |
| 20260507204723 | 9 | 132 | 6.4 | 11.3 | 0.00 | 0.00 | 0.00 | 83 | |
| 20260507204602 | 9 | 133 | 6.4 | 11.3 | 0.00 | 0.00 | 0.00 | 83 | |
| 20260507204502 | 9 | 132 | 6.4 | 11.3 | 0.00 | 0.00 | 0.00 | 83 | |
| 20260507204402 | 9 | 133 | 6.4 | 12.9 | 0.00 | 0.00 | 0.00 | 83 | |
| 20260507204302 | 9 | 133 | 6.4 | 12.9 | 0.00 | 0.00 | 0.00 | 83 | |
| 20260507204202 | 9 | 133 | 6.4 | 12.9 | 0.00 | 0.00 | 0.00 | 83 | |
| 20260507204123 | 9 | 131 | 6.4 | 12.9 | 0.00 | 0.00 | 0.00 | 83 | |
| 20260507204002 | 9 | 133 | 6.4 | 12.9 | 0.00 | 0.00 | 0.00 | 83 | |
| 20260507203902 | 9 | 132 | 6.4 | 12.9 | 0.00 | 0.00 | 0.00 | 83 | |
| 20260507203823 | 9 | 131 | 6.4 | 12.9 | 0.00 | 0.00 | 0.00 | 83 | |
| 20260507203702 | 9 | 133 | 6.4 | 12.9 | 0.00 | 0.00 | 0.00 | 83 | |
| 20260507203602 | 9 | 133 | 6.4 | 12.9 | 0.00 | 0.00 | 0.00 | 83 | |
| 20260507203502 | 9 | 134 | 6.4 | 12.9 | 0.00 | 0.00 | 0.00 | 83 | |
| 20260507203402 | 9 | 135 | 6.4 | 12.9 | 0.00 | 0.00 | 0.00 | 83 | |
| 20260507203302 | 9 | 136 | 6.4 | 12.9 | 0.00 | 0.00 | 0.00 | 83 | |
| 20260507203202 | 9 | 136 | 6.4 | 12.9 | 0.00 | 0.00 | 0.00 | 83 | |
| 20260507203102 | 9 | 137 | 6.4 | 12.9 | 0.00 | 0.00 | 0.00 | 83 | |
| 20260507203002 | 9 | 137 | 6.4 | 12.9 | 0.00 | 0.00 | 0.00 | 83 | |
| 20260507202902 | 9 | 138 | 6.4 | 12.9 | 0.00 | 0.00 | 0.00 | 83 | |
| 20260507202802 | 9 | 139 | 6.4 | 12.9 | 0.00 | 0.00 | 0.00 | 82 | |
| 20260507202702 | 9 | 139 | 6.4 | 12.9 | 0.00 | 0.00 | 0.00 | 82 | |
| 20260507202623 | 9 | 138 | 6.4 | 12.9 | 0.00 | 0.00 | 0.00 | 82 | |
| 20260507202502 | 9 | 140 | 6.4 | 12.9 | 0.00 | 0.00 | 0.00 | 82 | |
| 20260507202402 | 9 | 141 | 6.4 | 12.9 | 0.00 | 0.00 | 0.00 | 82 | |
| 20260507202306 | 9 | 142 | 6.4 | 12.9 | 0.00 | 0.00 | 0.00 | 82 | |
| 20260507202223 | 9 | 142 | 6.4 | 12.9 | 0.00 | 0.00 | 0.00 | 82 | |
| 20260507202102 | 10 | 143 | 6.4 | 12.9 | 0.00 | 0.00 | 0.00 | 82 | |
| 20260507202023 | 10 | 143 | 6.4 | 12.9 | 0.00 | 0.00 | 0.00 | 82 | |
| 20260507201923 | 10 | 142 | 6.4 | 11.3 | 0.00 | 0.00 | 0.00 | 82 | |
| 20260507201802 | 10 | 142 | 6.4 | 11.3 | 0.00 | 0.00 | 0.00 | 82 | |
| 20260507201723 | 10 | 140 | 6.4 | 11.3 | 0.00 | 0.00 | 0.00 | 82 | |
| 20260507201602 | 10 | 141 | 6.4 | 11.3 | 0.00 | 0.00 | 0.00 | 82 | |
| 20260507201502 | 10 | 141 | 6.4 | 11.3 | 0.00 | 0.00 | 0.00 | 82 | |
| 20260507201402 | 10 | 140 | 6.4 | 11.3 | 0.00 | 0.00 | 0.00 | 82 | |
| 20260507201303 | 10 | 140 | 6.4 | 11.3 | 0.00 | 0.00 | 0.00 | 81 | |
| 20260507201202 | 10 | 140 | 6.4 | 11.3 | 0.00 | 0.00 | 0.00 | 81 | |
| 20260507201102 | 10 | 140 | 6.4 | 11.3 | 0.00 | 0.00 | 0.00 | 81 | |
| 20260507201002 | 10 | 140 | 6.4 | 11.3 | 0.00 | 0.00 | 0.00 | 81 | |
| 20260507200902 | 10 | 141 | 6.4 | 11.3 | 0.00 | 0.00 | 0.00 | 81 | |
| 20260507200802 | 10 | 141 | 6.4 | 11.3 | 0.00 | 0.00 | 0.00 | 81 | |
| 20260507200703 | 10 | 142 | 6.4 | 11.3 | 0.00 | 0.00 | 0.00 | 81 | |
| 20260507200602 | 10 | 141 | 6.4 | 11.3 | 0.00 | 0.00 | 0.00 | 81 | |
| 20260507200502 | 10 | 142 | 6.4 | 11.3 | 0.00 | 0.00 | 0.00 | 81 | |
| 20260507200402 | 10 | 141 | 4.8 | 11.3 | 0.00 | 0.00 | 0.00 | 80 | |
| 20260507200302 | 10 | 139 | 6.4 | 11.3 | 0.00 | 0.00 | 0.00 | 80 | |
| 20260507200202 | 10 | 140 | 4.8 | 11.3 | 0.00 | 0.00 | 0.00 | 80 | |
| 20260507200002 | 10 | 141 | 4.8 | 11.3 | 0.00 | 0.00 | 0.00 | 80 | |
| 20260507195902 | 10 | 141 | 6.4 | 11.3 | 0.00 | 0.00 | 0.00 | 80 | |
| 20260507195802 | 10 | 142 | 6.4 | 11.3 | 0.00 | 0.00 | 0.00 | 80 | |
| 20260507195702 | 10 | 140 | 6.4 | 11.3 | 0.00 | 0.00 | 0.00 | 80 | |
| 20260507195623 | 10 | 140 | 6.4 | 11.3 | 0.00 | 0.00 | 0.00 | 79 | |
| 20260507195502 | 10 | 137 | 6.4 | 11.3 | 0.00 | 0.00 | 0.00 | 79 | |
| 20260507195402 | 10 | 136 | 6.4 | 11.3 | 0.00 | 0.00 | 0.00 | 79 | |
| 20260507195305 | 10 | 136 | 6.4 | 11.3 | 0.00 | 0.00 | 0.00 | 79 | |
| 20260507195202 | 10 | 135 | 6.4 | 11.3 | 0.00 | 0.00 | 0.00 | 79 | |
| 20260507195102 | 10 | 135 | 6.4 | 11.3 | 0.00 | 0.00 | 0.00 | 79 | |
| 20260507195002 | 10 | 135 | 6.4 | 12.9 | 0.00 | 0.00 | 0.00 | 79 | |
| 20260507194902 | 10 | 135 | 6.4 | 12.9 | 0.00 | 0.00 | 0.00 | 78 | |
| 20260507194802 | 10 | 134 | 6.4 | 12.9 | 0.00 | 0.00 | 0.00 | 78 | |
| 20260507194702 | 10 | 135 | 6.4 | 12.9 | 0.00 | 0.00 | 0.00 | 78 | |
| 20260507194602 | 10 | 135 | 6.4 | 12.9 | 0.00 | 0.00 | 0.00 | 78 | |
| 20260507194502 | 10 | 136 | 6.4 | 12.9 | 0.00 | 0.00 | 0.00 | 78 | |
| 20260507194402 | 10 | 138 | 6.4 | 12.9 | 0.00 | 0.00 | 0.00 | 78 | |
| 20260507194323 | 10 | 139 | 6.4 | 12.9 | 0.00 | 0.00 | 0.00 | 78 | |
| 20260507194202 | 10 | 142 | 6.4 | 12.9 | 0.00 | 0.00 | 0.00 | 78 | |
| 20260507194102 | 10 | 143 | 6.4 | 12.9 | 0.00 | 0.00 | 0.00 | 78 | |
| 20260507194023 | 10 | 144 | 6.4 | 12.9 | 0.00 | 0.00 | 0.00 | 77 | |
| 20260507193923 | 10 | 144 | 6.4 | 12.9 | 0.00 | 0.00 | 0.00 | 77 | |
| 20260507193802 | 10 | 144 | 6.4 | 12.9 | 0.00 | 0.00 | 0.00 | 77 | |
| 20260507193702 | 11 | 143 | 6.4 | 12.9 | 0.00 | 0.00 | 0.00 | 77 | |
| 20260507193602 | 11 | 144 | 6.4 | 12.9 | 0.00 | 0.00 | 0.00 | 77 | |
| 20260507193502 | 11 | 142 | 6.4 | 12.9 | 0.00 | 0.00 | 0.00 | 77 | |
| 20260507193402 | 11 | 140 | 6.4 | 11.3 | 0.00 | 0.00 | 0.00 | 77 | |
| 20260507193302 | 11 | 137 | 6.4 | 11.3 | 0.00 | 0.00 | 0.00 | 77 | |
| 20260507193202 | 11 | 135 | 4.8 | 11.3 | 0.00 | 0.00 | 0.00 | 76 | |
| 20260507193102 | 11 | 133 | 4.8 | 11.3 | 0.00 | 0.00 | 0.00 | 76 | |
| 20260507193002 | 11 | 131 | 4.8 | 11.3 | 0.00 | 0.00 | 0.00 | 76 | |
| 20260507192903 | 11 | 131 | 4.8 | 11.3 | 0.00 | 0.00 | 0.00 | 76 | |
| 20260507192802 | 11 | 130 | 6.4 | 11.3 | 0.00 | 0.00 | 0.00 | 76 | |
| 20260507192702 | 11 | 132 | 4.8 | 11.3 | 0.00 | 0.00 | 0.00 | 76 | |
| 20260507192602 | 11 | 133 | 4.8 | 11.3 | 0.00 | 0.00 | 0.00 | 76 | |
| 20260507192502 | 11 | 134 | 4.8 | 11.3 | 0.00 | 0.00 | 0.00 | 76 | |
| 20260507192402 | 11 | 135 | 4.8 | 11.3 | 0.00 | 0.00 | 0.00 | 76 | |
| 20260507192305 | 11 | 136 | 6.4 | 11.3 | 0.00 | 0.00 | 0.00 | 75 | |
| 20260507192202 | 11 | 136 | 6.4 | 11.3 | 0.00 | 0.00 | 0.00 | 75 | |
| 20260507192102 | 11 | 137 | 6.4 | 11.3 | 0.00 | 0.00 | 0.00 | 75 | |
| 20260507192002 | 11 | 138 | 6.4 | 11.3 | 0.00 | 0.00 | 0.00 | 75 | |
| 20260507191902 | 11 | 138 | 6.4 | 12.9 | 0.00 | 0.00 | 0.00 | 75 | |
| 20260507191823 | 11 | 140 | 6.4 | 12.9 | 0.00 | 0.00 | 0.00 | 75 | |
| 20260507191702 | 11 | 138 | 6.4 | 12.9 | 0.00 | 0.00 | 0.00 | 75 | |
| 20260507191602 | 11 | 136 | 6.4 | 12.9 | 0.00 | 0.00 | 0.00 | 75 | |
| 20260507191523 | 11 | 135 | 6.4 | 12.9 | 0.00 | 0.00 | 0.00 | 75 | |
| 20260507191402 | 11 | 136 | 6.4 | 12.9 | 0.00 | 0.00 | 0.00 | 74 | |
| 20260507191302 | 11 | 135 | 6.4 | 12.9 | 0.00 | 0.00 | 0.00 | 74 | |
| 20260507191203 | 11 | 135 | 6.4 | 12.9 | 0.00 | 0.00 | 0.00 | 74 | |
| 20260507191123 | 11 | 134 | 6.4 | 12.9 | 0.00 | 0.00 | 0.00 | 74 | |
| 20260507191023 | 11 | 134 | 6.4 | 12.9 | 0.00 | 0.00 | 0.00 | 74 | |
| 20260507190902 | 11 | 131 | 6.4 | 12.9 | 0.00 | 0.00 | 0.00 | 74 | |
| 20260507190803 | 11 | 132 | 6.4 | 12.9 | 0.00 | 0.00 | 0.00 | 74 | |
| 20260507190702 | 11 | 133 | 6.4 | 12.9 | 0.00 | 0.00 | 0.00 | 74 | |
| 20260507190602 | 11 | 134 | 6.4 | 12.9 | 0.00 | 0.00 | 0.00 | 74 | |
| 20260507190502 | 11 | 133 | 6.4 | 12.9 | 0.00 | 0.00 | 0.00 | 74 | |
| 20260507190403 | 11 | 134 | 6.4 | 12.9 | 0.00 | 0.00 | 0.00 | 73 | |
| 20260507190302 | 11 | 135 | 6.4 | 12.9 | 0.00 | 0.00 | 0.00 | 73 | |
| 20260507190223 | 11 | 135 | 6.4 | 12.9 | 0.00 | 0.00 | 0.00 | 73 | |
| 20260507190003 | 11 | 136 | 6.4 | 12.9 | 0.00 | 0.00 | 0.00 | 73 | |
| 20260507185902 | 11 | 137 | 6.4 | 12.9 | 0.00 | 0.00 | 0.00 | 73 | |
| 20260507185802 | 12 | 136 | 6.4 | 12.9 | 0.00 | 0.00 | 0.00 | 73 | |
| 20260507185723 | 12 | 136 | 6.4 | 12.9 | 0.00 | 0.00 | 0.00 | 73 | |
| 20260507185623 | 12 | 137 | 6.4 | 12.9 | 0.00 | 0.00 | 0.00 | 73 | |
| 20260507185502 | 12 | 138 | 6.4 | 12.9 | 0.00 | 0.00 | 0.00 | 73 | |
| 20260507185402 | 12 | 141 | 6.4 | 14.5 | 0.00 | 0.00 | 0.00 | 72 | |
| 20260507185305 | 12 | 142 | 6.4 | 14.5 | 0.00 | 0.00 | 0.00 | 72 | |
| 20260507185202 | 12 | 144 | 6.4 | 14.5 | 0.00 | 0.00 | 0.00 | 72 | |
| 20260507185102 | 12 | 144 | 6.4 | 14.5 | 0.00 | 0.00 | 0.00 | 72 | |
| 20260507185002 | 12 | 144 | 6.4 | 16.1 | 0.00 | 0.00 | 0.00 | 72 | |
| 20260507184902 | 12 | 146 | 6.4 | 16.1 | 0.00 | 0.00 | 0.00 | 72 | |
| 20260507184802 | 12 | 147 | 8.0 | 16.1 | 0.00 | 0.00 | 0.00 | 72 | |
| 20260507184702 | 12 | 149 | 8.0 | 16.1 | 0.00 | 0.00 | 0.00 | 72 | |
| 20260507184602 | 12 | 152 | 8.0 | 16.1 | 0.00 | 0.00 | 0.00 | 72 | |
| 20260507184502 | 12 | 153 | 8.0 | 16.1 | 0.00 | 0.00 | 0.00 | 72 | |
| 20260507184402 | 12 | 152 | 6.4 | 16.1 | 0.00 | 0.00 | 0.00 | 72 | |
| 20260507184302 | 12 | 153 | 8.0 | 16.1 | 0.00 | 0.00 | 0.00 | 72 | |
| 20260507184202 | 12 | 153 | 8.0 | 16.1 | 0.00 | 0.00 | 0.00 | 72 | |
| 20260507184102 | 12 | 153 | 6.4 | 16.1 | 0.00 | 0.00 | 0.00 | 71 | |
| 20260507184002 | 12 | 154 | 8.0 | 16.1 | 0.00 | 0.00 | 0.00 | 71 | |
| 20260507183902 | 12 | 154 | 8.0 | 16.1 | 0.00 | 0.00 | 0.00 | 71 | |
| 20260507183802 | 12 | 154 | 8.0 | 16.1 | 0.00 | 0.00 | 0.00 | 71 | |
| 20260507183702 | 12 | 152 | 8.0 | 16.1 | 0.00 | 0.00 | 0.00 | 71 | |
| 20260507183603 | 12 | 151 | 8.0 | 16.1 | 0.00 | 0.00 | 0.00 | 72 | |
| 20260507183502 | 12 | 148 | 8.0 | 16.1 | 0.00 | 0.00 | 0.00 | 71 | |
| 20260507183423 | 12 | 149 | 8.0 | 16.1 | 0.00 | 0.00 | 0.00 | 71 | |
| 20260507183302 | 12 | 147 | 8.0 | 16.1 | 0.00 | 0.00 | 0.00 | 71 | |
| 20260507183202 | 12 | 146 | 8.0 | 16.1 | 0.00 | 0.00 | 0.00 | 71 | |
| 20260507183102 | 12 | 147 | 9.7 | 16.1 | 0.00 | 0.00 | 0.00 | 71 | |
| 20260507183002 | 12 | 146 | 9.7 | 16.1 | 0.00 | 0.00 | 0.00 | 71 | |
| 20260507182902 | 12 | 146 | 9.7 | 16.1 | 0.00 | 0.00 | 0.00 | 70 | |
| 20260507182823 | 12 | 146 | 9.7 | 16.1 | 0.00 | 0.00 | 0.00 | 70 | |
| 20260507182702 | 12 | 146 | 9.7 | 17.7 | 0.00 | 0.00 | 0.00 | 70 | |
| 20260507182602 | 12 | 145 | 9.7 | 17.7 | 0.00 | 0.00 | 0.00 | 70 | |
| 20260507182502 | 12 | 146 | 9.7 | 17.7 | 0.00 | 0.00 | 0.00 | 70 | |
| 20260507182402 | 12 | 147 | 9.7 | 17.7 | 0.00 | 0.00 | 0.00 | 70 | |
| 20260507182306 | 12 | 148 | 9.7 | 17.7 | 0.00 | 0.00 | 0.00 | 69 | |
| 20260507182202 | 12 | 148 | 9.7 | 19.3 | 0.00 | 0.00 | 0.00 | 69 | |
| 20260507182103 | 13 | 146 | 9.7 | 22.5 | 0.00 | 0.00 | 0.00 | 69 | |
| 20260507182023 | 13 | 147 | 9.7 | 22.5 | 0.00 | 0.00 | 0.00 | 69 | |
| 20260507181902 | 13 | 145 | 9.7 | 22.5 | 0.00 | 0.00 | 0.00 | 68 | |
| 20260507181802 | 13 | 144 | 9.7 | 22.5 | 0.00 | 0.00 | 0.00 | 68 | |
| 20260507181723 | 13 | 144 | 9.7 | 22.5 | 0.00 | 0.00 | 0.00 | 68 | |
| 20260507181602 | 13 | 145 | 9.7 | 22.5 | 0.00 | 0.00 | 0.00 | 68 | |
| 20260507181523 | 13 | 145 | 9.7 | 22.5 | 0.00 | 0.00 | 0.00 | 67 | |
| 20260507181402 | 13 | 143 | 11.3 | 24.1 | 0.00 | 0.00 | 0.00 | 67 | |
| 20260507181302 | 13 | 142 | 11.3 | 24.1 | 0.00 | 0.00 | 0.00 | 67 | |
| 20260507181202 | 13 | 142 | 9.7 | 24.1 | 0.00 | 0.00 | 0.00 | 67 | |
| 20260507181102 | 13 | 143 | 11.3 | 24.1 | 0.00 | 0.00 | 0.00 | 66 | |
| 20260507181002 | 13 | 143 | 11.3 | 24.1 | 0.00 | 0.00 | 0.00 | 66 | |
| 20260507180902 | 13 | 143 | 11.3 | 24.1 | 0.00 | 0.00 | 0.00 | 66 | |
| 20260507180823 | 13 | 142 | 11.3 | 24.1 | 0.00 | 0.00 | 0.00 | 65 | |
| 20260507180702 | 13 | 142 | 11.3 | 24.1 | 0.00 | 0.00 | 0.00 | 64 | |
| 20260507180602 | 13 | 141 | 11.3 | 24.1 | 0.00 | 0.00 | 0.00 | 64 | |
| 20260507180502 | 13 | 141 | 11.3 | 24.1 | 0.00 | 0.00 | 0.00 | 64 | |
| 20260507180403 | 13 | 140 | 11.3 | 24.1 | 0.00 | 0.00 | 0.00 | 64 | |
| 20260507180302 | 13 | 139 | 11.3 | 24.1 | 0.00 | 0.00 | 0.00 | 64 | |
| 20260507180202 | 13 | 138 | 11.3 | 24.1 | 0.00 | 0.00 | 0.00 | 63 | |
| 20260507180023 | 13 | 138 | 11.3 | 24.1 | 0.00 | 0.00 | 0.00 | 63 | |
| 20260507175903 | 13 | 138 | 9.7 | 24.1 | 0.00 | 0.00 | 0.00 | 63 | |
| 20260507175824 | 13 | 139 | 9.7 | 24.1 | 0.00 | 0.00 | 0.00 | 63 | |
| 20260507175702 | 13 | 140 | 9.7 | 24.1 | 0.00 | 0.00 | 0.00 | 64 | |
| 20260507175602 | 13 | 140 | 9.7 | 24.1 | 0.00 | 0.00 | 0.00 | 64 | |
| 20260507175502 | 13 | 139 | 9.7 | 24.1 | 0.00 | 0.00 | 0.00 | 64 | |
| 20260507175402 | 13 | 139 | 9.7 | 24.1 | 0.00 | 0.00 | 0.00 | 64 | |
| 20260507175323 | 13 | 138 | 9.7 | 24.1 | 0.00 | 0.00 | 0.00 | 64 | |
| 20260507175202 | 13 | 137 | 9.7 | 24.1 | 0.00 | 0.00 | 0.00 | 65 | |
| 20260507175102 | 13 | 136 | 9.7 | 24.1 | 0.00 | 0.00 | 0.00 | 65 | |
| 20260507175002 | 13 | 135 | 9.7 | 24.1 | 0.00 | 0.00 | 0.00 | 66 | |
| 20260507174902 | 13 | 134 | 9.7 | 17.7 | 0.00 | 0.00 | 0.00 | 66 | |
| 20260507174802 | 13 | 132 | 9.7 | 17.7 | 0.00 | 0.00 | 0.00 | 66 | |
| 20260507174702 | 13 | 130 | 9.7 | 17.7 | 0.00 | 0.00 | 0.00 | 67 | |
| 20260507174602 | 13 | 129 | 9.7 | 17.7 | 0.00 | 0.00 | 0.00 | 67 | |
| 20260507174502 | 13 | 127 | 9.7 | 17.7 | 0.00 | 0.00 | 0.00 | 68 | |
| 20260507174402 | 13 | 125 | 9.7 | 17.7 | 0.00 | 0.00 | 0.00 | 68 | |
| 20260507174323 | 13 | 126 | 9.7 | 17.7 | 0.00 | 0.00 | 0.00 | 68 | |
| 20260507174202 | 13 | 123 | 9.7 | 17.7 | 0.00 | 0.00 | 0.00 | 68 | |
| 20260507174102 | 13 | 122 | 9.7 | 17.7 | 0.00 | 0.00 | 0.00 | 67 | |
| 20260507174002 | 13 | 123 | 9.7 | 17.7 | 0.00 | 0.00 | 0.00 | 67 | |
| 20260507173902 | 13 | 124 | 9.7 | 17.7 | 0.00 | 0.00 | 0.00 | 67 | |
| 20260507173802 | 13 | 126 | 9.7 | 17.7 | 0.00 | 0.00 | 0.00 | 66 | |
| 20260507173723 | 13 | 129 | 9.7 | 17.7 | 0.00 | 0.00 | 0.00 | 66 | |
| 20260507173602 | 13 | 128 | 9.7 | 19.3 | 0.00 | 0.00 | 0.00 | 66 | |
| 20260507173502 | 13 | 129 | 9.7 | 19.3 | 0.00 | 0.00 | 0.00 | 66 | |
| 20260507173402 | 13 | 132 | 9.7 | 19.3 | 0.00 | 0.00 | 0.00 | 65 | |
| 20260507173302 | 13 | 133 | 9.7 | 19.3 | 0.00 | 0.00 | 0.00 | 65 | |
| 20260507173202 | 13 | 138 | 9.7 | 19.3 | 0.00 | 0.00 | 0.00 | 64 | |
| 20260507173102 | 13 | 140 | 9.7 | 19.3 | 0.00 | 0.00 | 0.00 | 63 | |
| 20260507173002 | 13 | 141 | 9.7 | 19.3 | 0.00 | 0.00 | 0.00 | 61 | |
| 20260507172902 | 13 | 142 | 9.7 | 19.3 | 0.00 | 0.00 | 0.00 | 60 | |
| 20260507172802 | 13 | 144 | 9.7 | 19.3 | 0.00 | 0.00 | 0.00 | 60 | |
| 20260507172723 | 13 | 144 | 9.7 | 19.3 | 0.00 | 0.00 | 0.00 | 60 | |
| 20260507172623 | 13 | 146 | 9.7 | 19.3 | 0.00 | 0.00 | 0.00 | 60 | |
| 20260507172502 | 13 | 148 | 9.7 | 19.3 | 0.00 | 0.00 | 0.00 | 61 | |
| 20260507172402 | 13 | 150 | 9.7 | 19.3 | 0.00 | 0.00 | 0.00 | 61 | |
| 20260507172306 | 13 | 151 | 9.7 | 19.3 | 0.00 | 0.00 | 0.00 | 61 | |
| 20260507172202 | 13 | 150 | 9.7 | 16.1 | 0.00 | 0.00 | 0.00 | 61 | |
| 20260507172102 | 13 | 152 | 9.7 | 16.1 | 0.00 | 0.00 | 0.00 | 62 | |
| 20260507172002 | 13 | 154 | 9.7 | 16.1 | 0.00 | 0.00 | 0.00 | 61 | |
| 20260507171902 | 13 | 154 | 11.3 | 19.3 | 0.00 | 0.00 | 0.00 | 61 | |
| 20260507171823 | 13 | 153 | 11.3 | 19.3 | 0.00 | 0.00 | 0.00 | 61 | |
| 20260507171702 | 13 | 148 | 11.3 | 19.3 | 0.00 | 0.00 | 0.00 | 61 | |
| 20260507171603 | 13 | 150 | 11.3 | 19.3 | 0.00 | 0.00 | 0.00 | 61 | |
| 20260507171503 | 13 | 162 | 11.3 | 19.3 | 0.00 | 0.00 | 0.00 | 60 | |
| 20260507171302 | 13 | 157 | 11.3 | 19.3 | 0.00 | 0.00 | 0.00 | 60 | |
| 20260507171202 | 13 | 157 | 11.3 | 19.3 | 0.00 | 0.00 | 0.00 | 60 | |
| 20260507171102 | 13 | 159 | 11.3 | 19.3 | 0.00 | 0.00 | 0.00 | 60 | |
| 20260507171002 | 13 | 159 | 11.3 | 19.3 | 0.00 | 0.00 | 0.00 | 61 | |
| 20260507170902 | 13 | 161 | 11.3 | 19.3 | 0.00 | 0.00 | 0.00 | 61 | |
| 20260507170802 | 13 | 161 | 11.3 | 19.3 | 0.00 | 0.00 | 0.00 | 60 | |
| 20260507170702 | 13 | 161 | 11.3 | 19.3 | 0.00 | 0.00 | 0.00 | 60 | |
| 20260507170602 | 13 | 161 | 11.3 | 19.3 | 0.00 | 0.00 | 0.00 | 60 | |
| 20260507170502 | 13 | 161 | 11.3 | 19.3 | 0.00 | 0.00 | 0.00 | 60 | |
| 20260507170423 | 13 | 160 | 11.3 | 19.3 | 0.00 | 0.00 | 0.00 | 61 | |
| 20260507170302 | 13 | 161 | 11.3 | 19.3 | 0.00 | 0.00 | 0.00 | 60 | |
| 20260507170202 | 13 | 161 | 11.3 | 19.3 | 0.00 | 0.00 | 0.00 | 60 | |
| 20260507170023 | 13 | 161 | 11.3 | 19.3 | 0.00 | 0.00 | 0.00 | 60 | |
| 20260507165902 | 13 | 161 | 11.3 | 19.3 | 0.00 | 0.00 | 0.00 | 60 | |
| 20260507165802 | 13 | 161 | 11.3 | 19.3 | 0.00 | 0.00 | 0.00 | 60 | |
| 20260507165702 | 13 | 162 | 11.3 | 19.3 | 0.00 | 0.00 | 0.00 | 60 | |
| 20260507165602 | 13 | 162 | 11.3 | 19.3 | 0.00 | 0.00 | 0.00 | 61 | |
| 20260507165502 | 13 | 162 | 11.3 | 19.3 | 0.00 | 0.00 | 0.00 | 61 | |
| 20260507165423 | 13 | 161 | 11.3 | 19.3 | 0.00 | 0.00 | 0.00 | 61 | |
| 20260507165306 | 13 | 158 | 9.7 | 19.3 | 0.00 | 0.00 | 0.00 | 62 | |
| 20260507165202 | 13 | 156 | 9.7 | 19.3 | 0.00 | 0.00 | 0.00 | 62 | |
| 20260507165102 | 13 | 153 | 9.7 | 19.3 | 0.00 | 0.00 | 0.00 | 61 | |
| 20260507165003 | 13 | 151 | 9.7 | 19.3 | 0.00 | 0.00 | 0.00 | 61 | |
| 20260507164923 | 13 | 149 | 9.7 | 19.3 | 0.00 | 0.00 | 0.00 | 62 | |
| 20260507164823 | 13 | 147 | 9.7 | 19.3 | 0.00 | 0.00 | 0.00 | 61 | |
| 20260507164702 | 13 | 148 | 9.7 | 17.7 | 0.00 | 0.00 | 0.00 | 61 | |
| 20260507164602 | 13 | 148 | 9.7 | 17.7 | 0.00 | 0.00 | 0.00 | 61 | |
| 20260507164502 | 13 | 149 | 9.7 | 17.7 | 0.00 | 0.00 | 0.00 | 61 | |
| 20260507164402 | 13 | 152 | 9.7 | 17.7 | 0.00 | 0.00 | 0.00 | 61 | |
| 20260507164302 | 13 | 155 | 9.7 | 17.7 | 0.00 | 0.00 | 0.00 | 61 | |
| 20260507164202 | 13 | 156 | 9.7 | 17.7 | 0.00 | 0.00 | 0.00 | 62 | |
| 20260507164102 | 13 | 157 | 11.3 | 17.7 | 0.00 | 0.00 | 0.00 | 61 | |
| 20260507164002 | 13 | 158 | 11.3 | 17.7 | 0.00 | 0.00 | 0.00 | 61 | |
| 20260507163902 | 13 | 160 | 11.3 | 17.7 | 0.00 | 0.00 | 0.00 | 61 | |
| 20260507163802 | 13 | 161 | 11.3 | 17.7 | 0.00 | 0.00 | 0.00 | 61 | |
| 20260507163702 | 13 | 162 | 11.3 | 17.7 | 0.00 | 0.00 | 0.00 | 61 | |
| 20260507163602 | 13 | 162 | 11.3 | 17.7 | 0.00 | 0.00 | 0.00 | 61 | |
| 20260507163502 | 13 | 162 | 11.3 | 17.7 | 0.00 | 0.00 | 0.00 | 60 | |
| 20260507163402 | 13 | 162 | 11.3 | 17.7 | 0.00 | 0.00 | 0.00 | 59 | |
| 20260507163302 | 13 | 162 | 9.7 | 17.7 | 0.00 | 0.00 | 0.00 | 59 | |
| 20260507163202 | 13 | 164 | 9.7 | 17.7 | 0.00 | 0.00 | 0.00 | 59 | |
| 20260507163103 | 13 | 168 | 9.7 | 17.7 | 0.00 | 0.00 | 0.00 | 59 | |
| 20260507163023 | 13 | 169 | 11.3 | 19.3 | 0.00 | 0.00 | 0.00 | 59 | |
| 20260507162923 | 13 | 171 | 11.3 | 19.3 | 0.00 | 0.00 | 0.00 | 59 | |
| 20260507162802 | 13 | 175 | 11.3 | 20.9 | 0.00 | 0.00 | 0.00 | 59 | |
| 20260507162702 | 13 | 176 | 11.3 | 20.9 | 0.00 | 0.00 | 0.00 | 58 | |
| 20260507162602 | 13 | 176 | 11.3 | 20.9 | 0.00 | 0.00 | 0.00 | 58 | |
| 20260507162523 | 13 | 176 | 12.9 | 20.9 | 0.00 | 0.00 | 0.00 | 57 | |
| 20260507162402 | 13 | 175 | 12.9 | 20.9 | 0.00 | 0.00 | 0.00 | 57 | |
| 20260507162306 | 13 | 176 | 12.9 | 20.9 | 0.00 | 0.00 | 0.00 | 56 | |
| 20260507162224 | 13 | 175 | 12.9 | 20.9 | 0.00 | 0.00 | 0.00 | 56 | |
| 20260507162123 | 13 | 175 | 11.3 | 20.9 | 0.00 | 0.00 | 0.00 | 56 | |
| 20260507162002 | 13 | 174 | 11.3 | 20.9 | 0.00 | 0.00 | 0.00 | 56 | |
| 20260507161902 | 13 | 174 | 11.3 | 20.9 | 0.00 | 0.00 | 0.00 | 56 | |
| 20260507161802 | 13 | 173 | 11.3 | 20.9 | 0.00 | 0.00 | 0.00 | 56 | |
| 20260507161702 | 13 | 173 | 11.3 | 20.9 | 0.00 | 0.00 | 0.00 | 56 | |
| 20260507161602 | 13 | 173 | 9.7 | 20.9 | 0.00 | 0.00 | 0.00 | 56 | |
| 20260507161502 | 13 | 174 | 9.7 | 19.3 | 0.00 | 0.00 | 0.00 | 56 | |
| 20260507161402 | 13 | 177 | 11.3 | 19.3 | 0.00 | 0.00 | 0.00 | 56 | |
| 20260507161302 | 14 | 178 | 11.3 | 19.3 | 0.00 | 0.00 | 0.00 | 55 | |
| 20260507161202 | 14 | 179 | 11.3 | 19.3 | 0.00 | 0.00 | 0.00 | 56 | |
| 20260507161102 | 14 | 181 | 11.3 | 19.3 | 0.00 | 0.00 | 0.00 | 55 | |
| 20260507161002 | 14 | 182 | 11.3 | 19.3 | 0.00 | 0.00 | 0.00 | 55 | |
| 20260507160923 | 14 | 182 | 11.3 | 19.3 | 0.00 | 0.00 | 0.00 | 55 | |
| 20260507160802 | 14 | 183 | 11.3 | 20.9 | 0.00 | 0.00 | 0.00 | 56 | |
| 20260507160702 | 14 | 183 | 11.3 | 20.9 | 0.00 | 0.00 | 0.00 | 56 | |
| 20260507160623 | 14 | 183 | 11.3 | 20.9 | 0.00 | 0.00 | 0.00 | 56 | |
| 20260507160502 | 14 | 186 | 12.9 | 20.9 | 0.00 | 0.00 | 0.00 | 56 | |
| 20260507160402 | 14 | 188 | 12.9 | 20.9 | 0.00 | 0.00 | 0.00 | 56 | |
| 20260507160302 | 13 | 189 | 12.9 | 20.9 | 0.00 | 0.00 | 0.00 | 56 | |
| 20260507160223 | 13 | 190 | 12.9 | 20.9 | 0.00 | 0.00 | 0.00 | 57 | |
| 20260507160002 | 13 | 192 | 12.9 | 20.9 | 0.00 | 0.00 | 0.00 | 57 | |
| 20260507155902 | 13 | 194 | 12.9 | 20.9 | 0.00 | 0.00 | 0.00 | 58 | |
| 20260507155802 | 13 | 193 | 12.9 | 19.3 | 0.00 | 0.00 | 0.00 | 57 | |
| 20260507155702 | 14 | 193 | 12.9 | 19.3 | 0.00 | 0.00 | 0.00 | 58 | |
| 20260507155602 | 14 | 195 | 12.9 | 19.3 | 0.00 | 0.00 | 0.00 | 59 | |
| 20260507155502 | 14 | 194 | 12.9 | 19.3 | 0.00 | 0.00 | 0.00 | 59 | |
| 20260507155402 | 14 | 193 | 12.9 | 19.3 | 0.00 | 0.00 | 0.00 | 59 | |
| 20260507155323 | 14 | 192 | 12.9 | 19.3 | 0.00 | 0.00 | 0.00 | 59 | |
| 20260507155202 | 14 | 192 | 12.9 | 19.3 | 0.00 | 0.00 | 0.00 | 59 | |
| 20260507155102 | 14 | 193 | 12.9 | 19.3 | 0.00 | 0.00 | 0.00 | 58 | |
| 20260507155002 | 14 | 193 | 12.9 | 19.3 | 0.00 | 0.00 | 0.00 | 57 | |
| 20260507154923 | 14 | 192 | 11.3 | 19.3 | 0.00 | 0.00 | 0.00 | 57 | |
| 20260507154823 | 14 | 193 | 11.3 | 17.7 | 0.00 | 0.00 | 0.00 | 58 | |
| 20260507154702 | 14 | 195 | 11.3 | 17.7 | 0.00 | 0.00 | 0.00 | 57 | |
| 20260507154602 | 14 | 193 | 11.3 | 17.7 | 0.00 | 0.00 | 0.00 | 55 | |
| 20260507154502 | 14 | 193 | 11.3 | 17.7 | 0.00 | 0.00 | 0.00 | 55 | |
| 20260507154402 | 14 | 191 | 9.7 | 17.7 | 0.00 | 0.00 | 0.00 | 57 | |
| 20260507154323 | 14 | 191 | 9.7 | 17.7 | 0.00 | 0.00 | 0.00 | 57 | |
| 20260507154203 | 14 | 186 | 9.7 | 16.1 | 0.00 | 0.00 | 0.00 | 57 | |
| 20260507154102 | 14 | 182 | 9.7 | 16.1 | 0.00 | 0.00 | 0.00 | 56 | |
| 20260507154002 | 14 | 179 | 9.7 | 14.5 | 0.00 | 0.00 | 0.00 | 56 | |
| 20260507153923 | 14 | 178 | 9.7 | 14.5 | 0.00 | 0.00 | 0.00 | 57 | |
| 20260507153802 | 14 | 172 | 9.7 | 14.5 | 0.00 | 0.00 | 0.00 | 57 | |
| 20260507153702 | 14 | 171 | 9.7 | 16.1 | 0.00 | 0.00 | 0.00 | 54 | |
| 20260507153602 | 14 | 172 | 9.7 | 16.1 | 0.00 | 0.00 | 0.00 | 55 | |
| 20260507153502 | 14 | 174 | 11.3 | 19.3 | 0.00 | 0.00 | 0.00 | 56 | |
| 20260507153423 | 14 | 177 | 11.3 | 19.3 | 0.00 | 0.00 | 0.00 | 55 | |
| 20260507153323 | 14 | 180 | 11.3 | 19.3 | 0.00 | 0.00 | 0.00 | 55 | |
| 20260507153202 | 14 | 186 | 12.9 | 20.9 | 0.00 | 0.00 | 0.00 | 56 | |
| 20260507153123 | 14 | 187 | 12.9 | 20.9 | 0.00 | 0.00 | 0.00 | 55 | |
| 20260507153002 | 14 | 189 | 12.9 | 20.9 | 0.00 | 0.00 | 0.00 | 54 | |
| 20260507152902 | 14 | 190 | 12.9 | 20.9 | 0.00 | 0.00 | 0.00 | 55 | |
| 20260507152802 | 14 | 190 | 12.9 | 20.9 | 0.00 | 0.00 | 0.00 | 55 | |
| 20260507152702 | 14 | 190 | 11.3 | 20.9 | 0.00 | 0.00 | 0.00 | 56 | |
| 20260507152602 | 14 | 188 | 11.3 | 20.9 | 0.00 | 0.00 | 0.00 | 57 | |
| 20260507152502 | 14 | 184 | 11.3 | 20.9 | 0.00 | 0.00 | 0.00 | 55 | |
| 20260507152423 | 14 | 182 | 11.3 | 20.9 | 0.00 | 0.00 | 0.00 | 54 | |
| 20260507152305 | 14 | 178 | 11.3 | 20.9 | 0.00 | 0.00 | 0.00 | 54 | |
| 20260507152202 | 14 | 175 | 9.7 | 20.9 | 0.00 | 0.00 | 0.00 | 54 | |
| 20260507152102 | 14 | 173 | 9.7 | 16.1 | 0.00 | 0.00 | 0.00 | 57 | |
| 20260507152023 | 14 | 172 | 9.7 | 16.1 | 0.00 | 0.00 | 0.00 | 56 | |
| 20260507151923 | 14 | 171 | 9.7 | 16.1 | 0.00 | 0.00 | 0.00 | 55 | |
| 20260507151803 | 14 | 172 | 9.7 | 16.1 | 0.00 | 0.00 | 0.00 | 56 | |
| 20260507151702 | 14 | 172 | 9.7 | 16.1 | 0.00 | 0.00 | 0.00 | 55 | |
| 20260507151602 | 14 | 175 | 9.7 | 16.1 | 0.00 | 0.00 | 0.00 | 55 | |
| 20260507151502 | 14 | 175 | 9.7 | 16.1 | 0.00 | 0.00 | 0.00 | 56 | |
| 20260507151402 | 14 | 173 | 11.3 | 20.9 | 0.00 | 0.00 | 0.00 | 56 | |
| 20260507151302 | 14 | 174 | 11.3 | 20.9 | 0.00 | 0.00 | 0.00 | 55 | |
| 20260507151202 | 14 | 174 | 11.3 | 20.9 | 0.00 | 0.00 | 0.00 | 56 | |
| 20260507151123 | 14 | 174 | 11.3 | 20.9 | 0.00 | 0.00 | 0.00 | 56 | |
| 20260507151002 | 14 | 174 | 11.3 | 20.9 | 0.00 | 0.00 | 0.00 | 57 | |
| 20260507150902 | 14 | 174 | 11.3 | 20.9 | 0.00 | 0.00 | 0.00 | 58 | |
| 20260507150802 | 14 | 172 | 11.3 | 20.9 | 0.00 | 0.00 | 0.00 | 58 | |
| 20260507150702 | 14 | 171 | 11.3 | 20.9 | 0.00 | 0.00 | 0.00 | 57 | |
| 20260507150602 | 14 | 170 | 11.3 | 20.9 | 0.00 | 0.00 | 0.00 | 56 | |
| 20260507150502 | 14 | 169 | 11.3 | 20.9 | 0.00 | 0.00 | 0.00 | 56 | |
| 20260507150402 | 14 | 172 | 11.3 | 16.1 | 0.00 | 0.00 | 0.00 | 57 | |
| 20260507150302 | 14 | 172 | 9.7 | 16.1 | 0.00 | 0.00 | 0.00 | 57 | |
| 20260507150203 | 14 | 171 | 9.7 | 16.1 | 0.00 | 0.00 | 0.00 | 58 | |
| 20260507150002 | 14 | 171 | 8.0 | 14.5 | 0.00 | 0.00 | 0.00 | 57 | |
| 20260507145924 | 14 | 170 | 8.0 | 14.5 | 0.00 | 0.00 | 0.00 | 57 | |
| 20260507145802 | 14 | 171 | 8.0 | 14.5 | 0.00 | 0.00 | 0.00 | 58 | |
| 20260507145702 | 14 | 167 | 8.0 | 14.5 | 0.00 | 0.00 | 0.00 | 57 | |
| 20260507145602 | 14 | 165 | 8.0 | 14.5 | 0.00 | 0.00 | 0.00 | 58 | |
| 20260507145502 | 14 | 166 | 6.4 | 14.5 | 0.00 | 0.00 | 0.00 | 58 | |
| 20260507145402 | 13 | 164 | 6.4 | 14.5 | 0.00 | 0.00 | 0.00 | 57 | |
| 20260507145306 | 13 | 165 | 6.4 | 14.5 | 0.00 | 0.00 | 0.00 | 58 | |
| 20260507145202 | 13 | 165 | 8.0 | 14.5 | 0.00 | 0.00 | 0.00 | 56 | |
| 20260507145102 | 13 | 166 | 8.0 | 14.5 | 0.00 | 0.00 | 0.00 | 56 | |
| 20260507145002 | 13 | 167 | 9.7 | 14.5 | 0.00 | 0.00 | 0.00 | 55 | |
| 20260507144902 | 13 | 171 | 9.7 | 14.5 | 0.00 | 0.00 | 0.00 | 55 | |
| 20260507144802 | 13 | 174 | 9.7 | 14.5 | 0.00 | 0.00 | 0.00 | 57 | |
| 20260507144702 | 13 | 181 | 9.7 | 14.5 | 0.00 | 0.00 | 0.00 | 57 | |
| 20260507144602 | 13 | 184 | 9.7 | 14.5 | 0.00 | 0.00 | 0.00 | 57 | |
| 20260507144502 | 13 | 185 | 9.7 | 14.5 | 0.00 | 0.00 | 0.00 | 57 | |
| 20260507144423 | 13 | 186 | 9.7 | 14.5 | 0.00 | 0.00 | 0.00 | 57 | |
| 20260507144302 | 13 | 186 | 9.7 | 14.5 | 0.00 | 0.00 | 0.00 | 56 | |
| 20260507144202 | 13 | 188 | 9.7 | 14.5 | 0.00 | 0.00 | 0.00 | 57 | |
| 20260507144102 | 13 | 188 | 8.0 | 14.5 | 0.00 | 0.00 | 0.00 | 58 | |
| 20260507144002 | 13 | 189 | 8.0 | 14.5 | 0.00 | 0.00 | 0.00 | 58 | |
| 20260507143902 | 13 | 190 | 8.0 | 14.5 | 0.00 | 0.00 | 0.00 | 58 | |
| 20260507143803 | 13 | 190 | 8.0 | 14.5 | 0.00 | 0.00 | 0.00 | 60 | |
| 20260507143723 | 13 | 190 | 8.0 | 14.5 | 0.00 | 0.00 | 0.00 | 58 | |
| 20260507143602 | 13 | 189 | 8.0 | 14.5 | 0.00 | 0.00 | 0.00 | 58 | |
| 20260507143523 | 13 | 190 | 9.7 | 14.5 | 0.00 | 0.00 | 0.00 | 59 | |
| 20260507143423 | 13 | 191 | 9.7 | 14.5 | 0.00 | 0.00 | 0.00 | 58 | |
| 20260507143302 | 13 | 191 | 9.7 | 16.1 | 0.00 | 0.00 | 0.00 | 59 | |
| 20260507143202 | 13 | 191 | 9.7 | 16.1 | 0.00 | 0.00 | 0.00 | 58 | |
| 20260507143103 | 13 | 192 | 9.7 | 16.1 | 0.00 | 0.00 | 0.00 | 58 | |
| 20260507143023 | 13 | 192 | 9.7 | 16.1 | 0.00 | 0.00 | 0.00 | 57 | |
| 20260507142903 | 13 | 192 | 9.7 | 16.1 | 0.00 | 0.00 | 0.00 | 57 | |
| 20260507142802 | 13 | 191 | 9.7 | 16.1 | 0.00 | 0.00 | 0.00 | 57 | |
| 20260507142702 | 13 | 192 | 9.7 | 16.1 | 0.00 | 0.00 | 0.00 | 58 | |
| 20260507142602 | 13 | 191 | 9.7 | 16.1 | 0.00 | 0.00 | 0.00 | 58 | |
| 20260507142502 | 13 | 189 | 9.7 | 16.1 | 0.00 | 0.00 | 0.00 | 59 | |
| 20260507142402 | 13 | 187 | 9.7 | 16.1 | 0.00 | 0.00 | 0.00 | 58 | |
| 20260507142306 | 13 | 187 | 9.7 | 16.1 | 0.00 | 0.00 | 0.00 | 59 | |
| 20260507142202 | 13 | 187 | 9.7 | 16.1 | 0.00 | 0.00 | 0.00 | 59 | |
| 20260507142123 | 13 | 186 | 9.7 | 16.1 | 0.00 | 0.00 | 0.00 | 58 | |
| 20260507142002 | 13 | 187 | 9.7 | 16.1 | 0.00 | 0.00 | 0.00 | 58 | |
| 20260507141902 | 13 | 188 | 9.7 | 16.1 | 0.00 | 0.00 | 0.00 | 58 | |
| 20260507141802 | 13 | 188 | 9.7 | 16.1 | 0.00 | 0.00 | 0.00 | 58 | |
| 20260507141702 | 13 | 186 | 11.3 | 16.1 | 0.00 | 0.00 | 0.00 | 58 | |
| 20260507141602 | 13 | 189 | 11.3 | 22.5 | 0.00 | 0.00 | 0.00 | 59 | |
| 20260507141502 | 13 | 192 | 12.9 | 22.5 | 0.00 | 0.00 | 0.00 | 59 | |
| 20260507141402 | 13 | 195 | 12.9 | 22.5 | 0.00 | 0.00 | 0.00 | 60 | |
| 20260507141302 | 13 | 195 | 12.9 | 22.5 | 0.00 | 0.00 | 0.00 | 59 | |
| 20260507141202 | 13 | 195 | 12.9 | 22.5 | 0.00 | 0.00 | 0.00 | 59 | |
| 20260507141102 | 13 | 197 | 12.9 | 22.5 | 0.00 | 0.00 | 0.00 | 60 | |
| 20260507141003 | 13 | 197 | 12.9 | 22.5 | 0.00 | 0.00 | 0.00 | 59 | |
| 20260507140902 | 13 | 198 | 12.9 | 22.5 | 0.00 | 0.00 | 0.00 | 60 | |
| 20260507140802 | 13 | 199 | 12.9 | 22.5 | 0.00 | 0.00 | 0.00 | 60 | |
| 20260507140723 | 13 | 201 | 12.9 | 22.5 | 0.00 | 0.00 | 0.00 | 61 | |
| 20260507140602 | 13 | 202 | 12.9 | 19.3 | 0.00 | 0.00 | 0.00 | 60 | |
| 20260507140502 | 13 | 203 | 11.3 | 19.3 | 0.00 | 0.00 | 0.00 | 59 | |
| 20260507140403 | 13 | 201 | 11.3 | 16.1 | 0.00 | 0.00 | 0.00 | 60 | |
| 20260507140302 | 13 | 202 | 11.3 | 16.1 | 0.00 | 0.00 | 0.00 | 60 | |
| 20260507140202 | 13 | 202 | 11.3 | 16.1 | 0.00 | 0.00 | 0.00 | 59 | |
| 20260507140002 | 13 | 204 | 11.3 | 16.1 | 0.00 | 0.00 | 0.00 | 60 | |
| 20260507135902 | 13 | 203 | 9.7 | 14.5 | 0.00 | 0.00 | 0.00 | 59 | |
| 20260507135802 | 13 | 203 | 11.3 | 14.5 | 0.00 | 0.00 | 0.00 | 59 | |
| 20260507135702 | 13 | 203 | 11.3 | 14.5 | 0.00 | 0.00 | 0.00 | 58 | |
| 20260507135603 | 13 | 202 | 11.3 | 14.5 | 0.00 | 0.00 | 0.00 | 59 | |
| 20260507135502 | 13 | 202 | 11.3 | 14.5 | 0.00 | 0.00 | 0.00 | 59 | |
| 20260507135402 | 13 | 202 | 11.3 | 14.5 | 0.00 | 0.00 | 0.00 | 59 | |
| 20260507135305 | 13 | 200 | 9.7 | 14.5 | 0.00 | 0.00 | 0.00 | 59 | |
| 20260507135202 | 13 | 198 | 11.3 | 16.1 | 0.00 | 0.00 | 0.00 | 59 | |
| 20260507135102 | 13 | 197 | 11.3 | 16.1 | 0.00 | 0.00 | 0.00 | 58 | |
| 20260507135002 | 13 | 197 | 11.3 | 16.1 | 0.00 | 0.00 | 0.00 | 57 | |
| 20260507134902 | 13 | 198 | 11.3 | 16.1 | 0.00 | 0.00 | 0.00 | 59 | |
| 20260507134803 | 13 | 197 | 11.3 | 16.1 | 0.00 | 0.00 | 0.00 | 58 | |
| 20260507134702 | 13 | 195 | 11.3 | 16.1 | 0.00 | 0.00 | 0.00 | 58 | |
| 20260507134602 | 13 | 194 | 11.3 | 16.1 | 0.00 | 0.00 | 0.00 | 58 | |
| 20260507134523 | 13 | 191 | 11.3 | 16.1 | 0.00 | 0.00 | 0.00 | 55 | |
| 20260507134402 | 13 | 187 | 11.3 | 16.1 | 0.00 | 0.00 | 0.00 | 57 | |
| 20260507134302 | 13 | 186 | 11.3 | 16.1 | 0.00 | 0.00 | 0.00 | 56 | |
| 20260507134202 | 13 | 188 | 11.3 | 16.1 | 0.00 | 0.00 | 0.00 | 58 | |
| 20260507134102 | 13 | 184 | 11.3 | 16.1 | 0.00 | 0.00 | 0.00 | 57 | |
| 20260507134002 | 14 | 178 | 9.7 | 16.1 | 0.00 | 0.00 | 0.00 | 56 | |
| 20260507133902 | 14 | 174 | 8.0 | 16.1 | 0.00 | 0.00 | 0.00 | 55 | |
| 20260507133823 | 14 | 171 | 8.0 | 16.1 | 0.00 | 0.00 | 0.00 | 55 | |
| 20260507133702 | 14 | 165 | 8.0 | 16.1 | 0.00 | 0.00 | 0.00 | 55 | |
| 20260507133602 | 14 | 161 | 8.0 | 16.1 | 0.00 | 0.00 | 0.00 | 56 | |
| 20260507133523 | 14 | 161 | 6.4 | 16.1 | 0.00 | 0.00 | 0.00 | 56 | |
| 20260507133402 | 14 | 156 | 6.4 | 16.1 | 0.00 | 0.00 | 0.00 | 57 | |
| 20260507133302 | 14 | 152 | 6.4 | 16.1 | 0.00 | 0.00 | 0.00 | 59 | |
| 20260507133202 | 14 | 145 | 4.8 | 12.9 | 0.00 | 0.00 | 0.00 | 56 | |
| 20260507133102 | 14 | 154 | 6.4 | 11.3 | 0.00 | 0.00 | 0.00 | 54 | |
| 20260507133002 | 14 | 167 | 6.4 | 12.9 | 0.00 | 0.00 | 0.00 | 55 | |
| 20260507132902 | 14 | 170 | 6.4 | 12.9 | 0.00 | 0.00 | 0.00 | 55 | |
| 20260507132823 | 13 | 173 | 6.4 | 12.9 | 0.00 | 0.00 | 0.00 | 56 | |
| 20260507132702 | 13 | 183 | 8.0 | 12.9 | 0.00 | 0.00 | 0.00 | 57 | |
| 20260507132602 | 13 | 188 | 8.0 | 16.1 | 0.00 | 0.00 | 0.00 | 58 | |
| 20260507132502 | 13 | 191 | 8.0 | 16.1 | 0.00 | 0.00 | 0.00 | 57 | |
| 20260507132402 | 13 | 196 | 8.0 | 16.1 | 0.00 | 0.00 | 0.00 | 57 | |
| 20260507132306 | 13 | 199 | 9.7 | 16.1 | 0.00 | 0.00 | 0.00 | 58 | |
| 20260507132202 | 13 | 198 | 9.7 | 16.1 | 0.00 | 0.00 | 0.00 | 57 | |
| 20260507132123 | 13 | 196 | 9.7 | 16.1 | 0.00 | 0.00 | 0.00 | 57 | |
| 20260507132002 | 13 | 197 | 9.7 | 16.1 | 0.00 | 0.00 | 0.00 | 58 | |
| 20260507131902 | 13 | 198 | 9.7 | 16.1 | 0.00 | 0.00 | 0.00 | 57 | |
| 20260507131802 | 13 | 198 | 9.7 | 16.1 | 0.00 | 0.00 | 0.00 | 57 | |
| 20260507131723 | 13 | 197 | 9.7 | 16.1 | 0.00 | 0.00 | 0.00 | 56 | |
| 20260507131602 | 13 | 198 | 9.7 | 14.5 | 0.00 | 0.00 | 0.00 | 57 | |
| 20260507131503 | 13 | 199 | 9.7 | 14.5 | 0.00 | 0.00 | 0.00 | 55 | |
| 20260507131402 | 13 | 199 | 9.7 | 14.5 | 0.00 | 0.00 | 0.00 | 54 | |
| 20260507131302 | 13 | 198 | 9.7 | 14.5 | 0.00 | 0.00 | 0.00 | 56 | |
| 20260507131202 | 13 | 195 | 9.7 | 14.5 | 0.00 | 0.00 | 0.00 | 58 | |
| 20260507131102 | 13 | 192 | 9.7 | 14.5 | 0.00 | 0.00 | 0.00 | 56 | |
| 20260507131002 | 13 | 184 | 9.7 | 14.5 | 0.00 | 0.00 | 0.00 | 56 | |
| 20260507130902 | 13 | 182 | 9.7 | 14.5 | 0.00 | 0.00 | 0.00 | 58 | |
| 20260507130802 | 13 | 180 | 9.7 | 14.5 | 0.00 | 0.00 | 0.00 | 57 | |
| 20260507130702 | 13 | 178 | 8.0 | 14.5 | 0.00 | 0.00 | 0.00 | 57 | |
| 20260507130602 | 13 | 173 | 8.0 | 14.5 | 0.00 | 0.00 | 0.00 | 55 | |
| 20260507130523 | 13 | 170 | 6.4 | 14.5 | 0.00 | 0.00 | 0.00 | 56 | |
| 20260507130402 | 13 | 163 | 6.4 | 12.9 | 0.00 | 0.00 | 0.00 | 57 | |
| 20260507130302 | 13 | 159 | 6.4 | 12.9 | 0.00 | 0.00 | 0.00 | 56 | |
| 20260507130202 | 13 | 162 | 6.4 | 12.9 | 0.00 | 0.00 | 0.00 | 57 | |
| 20260507130002 | 13 | 170 | 6.4 | 12.9 | 0.00 | 0.00 | 0.00 | 56 | |
| 20260507125902 | 13 | 167 | 6.4 | 12.9 | 0.00 | 0.00 | 0.00 | 56 | |
| 20260507125802 | 13 | 168 | 6.4 | 12.9 | 0.00 | 0.00 | 0.00 | 57 | |
| 20260507125703 | 13 | 167 | 8.0 | 14.5 | 0.00 | 0.00 | 0.00 | 55 | |
| 20260507125602 | 13 | 167 | 8.0 | 16.1 | 0.00 | 0.00 | 0.00 | 57 | |
| 20260507125525 | 13 | 167 | 8.0 | 16.1 | 0.00 | 0.00 | 0.00 | 56 | |
| 20260507125402 | 13 | 164 | 9.7 | 16.1 | 0.00 | 0.00 | 0.00 | 56 | |
| 20260507125306 | 13 | 165 | 9.7 | 17.7 | 0.00 | 0.00 | 0.00 | 57 | |
| 20260507125223 | 13 | 164 | 9.7 | 17.7 | 0.00 | 0.00 | 0.00 | 57 | |
| 20260507125102 | 13 | 163 | 9.7 | 17.7 | 0.00 | 0.00 | 0.00 | 57 | |
| 20260507125002 | 13 | 162 | 11.3 | 17.7 | 0.00 | 0.00 | 0.00 | 57 | |
| 20260507124923 | 13 | 163 | 11.3 | 17.7 | 0.00 | 0.00 | 0.00 | 55 | |
| 20260507124823 | 13 | 164 | 11.3 | 17.7 | 0.00 | 0.00 | 0.00 | 55 | |
| 20260507124702 | 13 | 162 | 11.3 | 17.7 | 0.00 | 0.00 | 0.00 | 55 | |
| 20260507124602 | 13 | 161 | 11.3 | 17.7 | 0.00 | 0.00 | 0.00 | 56 | |
| 20260507124502 | 13 | 161 | 9.7 | 17.7 | 0.00 | 0.00 | 0.00 | 55 | |
| 20260507124402 | 13 | 164 | 9.7 | 17.7 | 0.00 | 0.00 | 0.00 | 55 | |
| 20260507124302 | 13 | 164 | 9.7 | 17.7 | 0.00 | 0.00 | 0.00 | 54 | |
| 20260507124202 | 13 | 167 | 9.7 | 17.7 | 0.00 | 0.00 | 0.00 | 55 | |
| 20260507124102 | 14 | 168 | 9.7 | 17.7 | 0.00 | 0.00 | 0.00 | 54 | |
| 20260507124023 | 14 | 168 | 9.7 | 17.7 | 0.00 | 0.00 | 0.00 | 54 | |
| 20260507123902 | 14 | 169 | 8.0 | 17.7 | 0.00 | 0.00 | 0.00 | 56 | |
| 20260507123802 | 14 | 170 | 8.0 | 16.1 | 0.00 | 0.00 | 0.00 | 56 | |
| 20260507123702 | 14 | 174 | 8.0 | 16.1 | 0.00 | 0.00 | 0.00 | 55 | |
| 20260507123602 | 14 | 175 | 9.7 | 16.1 | 0.00 | 0.00 | 0.00 | 56 | |
| 20260507123502 | 13 | 177 | 9.7 | 16.1 | 0.00 | 0.00 | 0.00 | 59 | |
| 20260507123402 | 13 | 179 | 9.7 | 16.1 | 0.00 | 0.00 | 0.00 | 58 | |
| 20260507123302 | 13 | 178 | 9.7 | 16.1 | 0.00 | 0.00 | 0.00 | 58 | |
| 20260507123202 | 13 | 179 | 8.0 | 16.1 | 0.00 | 0.00 | 0.00 | 58 | |
| 20260507123102 | 13 | 181 | 8.0 | 16.1 | 0.00 | 0.00 | 0.00 | 58 | |
| 20260507123002 | 13 | 184 | 9.7 | 16.1 | 0.00 | 0.00 | 0.00 | 56 | |
| 20260507122902 | 13 | 185 | 9.7 | 16.1 | 0.00 | 0.00 | 0.00 | 58 | |
| 20260507122802 | 13 | 186 | 8.0 | 16.1 | 0.00 | 0.00 | 0.00 | 56 | |
| 20260507122702 | 13 | 186 | 8.0 | 16.1 | 0.00 | 0.00 | 0.00 | 56 | |
| 20260507122623 | 13 | 187 | 8.0 | 16.1 | 0.00 | 0.00 | 0.00 | 58 | |
| 20260507122502 | 13 | 187 | 6.4 | 16.1 | 0.00 | 0.00 | 0.00 | 58 | |
| 20260507122402 | 13 | 185 | 6.4 | 11.3 | 0.00 | 0.00 | 0.00 | 57 | |
| 20260507122306 | 13 | 186 | 6.4 | 11.3 | 0.00 | 0.00 | 0.00 | 57 | |
| 20260507122202 | 13 | 187 | 6.4 | 11.3 | 0.00 | 0.00 | 0.00 | 59 | |
| 20260507122102 | 13 | 185 | 6.4 | 12.9 | 0.00 | 0.00 | 0.00 | 59 | |
| 20260507122004 | 13 | 179 | 6.4 | 14.5 | 0.00 | 0.00 | 0.00 | 61 | |
| 20260507121902 | 13 | 177 | 6.4 | 14.5 | 0.00 | 0.00 | 0.00 | 60 | |
| 20260507121802 | 13 | 179 | 8.0 | 14.5 | 0.00 | 0.00 | 0.00 | 59 | |
| 20260507121702 | 13 | 185 | 8.0 | 14.5 | 0.00 | 0.00 | 0.00 | 59 | |
| 20260507121602 | 13 | 192 | 9.7 | 14.5 | 0.00 | 0.00 | 0.00 | 60 | |
| 20260507121502 | 13 | 196 | 9.7 | 14.5 | 0.00 | 0.00 | 0.00 | 58 | |
| 20260507121423 | 13 | 199 | 11.3 | 16.1 | 0.00 | 0.00 | 0.00 | 60 | |
| 20260507121302 | 13 | 202 | 11.3 | 16.1 | 0.00 | 0.00 | 0.00 | 61 | |
| 20260507121202 | 13 | 204 | 11.3 | 16.1 | 0.00 | 0.00 | 0.00 | 61 | |
| 20260507121102 | 13 | 207 | 11.3 | 16.1 | 0.00 | 0.00 | 0.00 | 60 | |
| 20260507121002 | 13 | 210 | 11.3 | 16.1 | 0.00 | 0.00 | 0.00 | 62 | |
| 20260507120902 | 13 | 208 | 11.3 | 16.1 | 0.00 | 0.00 | 0.00 | 64 | |
| 20260507120802 | 13 | 207 | 11.3 | 16.1 | 0.00 | 0.00 | 0.00 | 63 | |
| 20260507120703 | 13 | 202 | 11.3 | 16.1 | 0.00 | 0.00 | 0.00 | 60 | |
| 20260507120602 | 13 | 196 | 11.3 | 16.1 | 0.00 | 0.00 | 0.00 | 58 | |
| 20260507120502 | 13 | 189 | 9.7 | 16.1 | 0.00 | 0.00 | 0.00 | 63 | |
| 20260507120423 | 13 | 184 | 9.7 | 17.7 | 0.00 | 0.00 | 0.00 | 63 | |
| 20260507120302 | 13 | 179 | 9.7 | 17.7 | 0.00 | 0.00 | 0.00 | 61 | |
| 20260507120202 | 13 | 173 | 9.7 | 17.7 | 0.00 | 0.00 | 0.00 | 59 | |
| 20260507120002 | 13 | 169 | 9.7 | 17.7 | 0.00 | 0.00 | 0.00 | 58 | |
| 20260507115902 | 13 | 170 | 9.7 | 17.7 | 0.00 | 0.00 | 0.00 | 59 | |
| 20260507115802 | 13 | 172 | 9.7 | 17.7 | 0.00 | 0.00 | 0.00 | 59 | |
| 20260507115702 | 13 | 172 | 9.7 | 17.7 | 0.00 | 0.00 | 0.00 | 59 | |
| 20260507115602 | 13 | 173 | 9.7 | 17.7 | 0.00 | 0.00 | 0.00 | 60 | |
| 20260507115502 | 13 | 175 | 8.0 | 17.7 | 0.00 | 0.00 | 0.00 | 60 | |
| 20260507115402 | 13 | 177 | 8.0 | 16.1 | 0.00 | 0.00 | 0.00 | 62 | |
| 20260507115306 | 13 | 179 | 9.7 | 16.1 | 0.00 | 0.00 | 0.00 | 61 | |
| 20260507115202 | 13 | 180 | 9.7 | 16.1 | 0.00 | 0.00 | 0.00 | 60 | |
| 20260507115123 | 13 | 181 | 9.7 | 17.7 | 0.00 | 0.00 | 0.00 | 59 | |
| 20260507115023 | 13 | 183 | 9.7 | 17.7 | 0.00 | 0.00 | 0.00 | 59 | |
| 20260507114923 | 13 | 181 | 9.7 | 17.7 | 0.00 | 0.00 | 0.00 | 61 | |
| 20260507114802 | 13 | 183 | 9.7 | 17.7 | 0.00 | 0.00 | 0.00 | 60 | |
| 20260507114702 | 13 | 182 | 9.7 | 17.7 | 0.00 | 0.00 | 0.00 | 61 | |
| 20260507114602 | 13 | 182 | 11.3 | 17.7 | 0.00 | 0.00 | 0.00 | 61 | |
| 20260507114502 | 13 | 180 | 11.3 | 17.7 | 0.00 | 0.00 | 0.00 | 60 | |
| 20260507114402 | 13 | 180 | 9.7 | 17.7 | 0.00 | 0.00 | 0.00 | 61 | |
| 20260507114302 | 13 | 177 | 9.7 | 17.7 | 0.00 | 0.00 | 0.00 | 60 | |
| 20260507114202 | 13 | 175 | 9.7 | 17.7 | 0.00 | 0.00 | 0.00 | 62 | |
| 20260507114102 | 13 | 172 | 9.7 | 16.1 | 0.00 | 0.00 | 0.00 | 61 | |
| 20260507114002 | 13 | 170 | 9.7 | 16.1 | 0.00 | 0.00 | 0.00 | 60 | |
| 20260507113902 | 13 | 170 | 9.7 | 16.1 | 0.00 | 0.00 | 0.00 | 60 | |
| 20260507113802 | 13 | 167 | 9.7 | 16.1 | 0.00 | 0.00 | 0.00 | 59 | |
| 20260507113702 | 13 | 170 | 9.7 | 16.1 | 0.00 | 0.00 | 0.00 | 60 | |
| 20260507113602 | 13 | 170 | 9.7 | 16.1 | 0.00 | 0.00 | 0.00 | 59 | |
| 20260507113503 | 13 | 169 | 9.7 | 16.1 | 0.00 | 0.00 | 0.00 | 60 | |
| 20260507113402 | 13 | 171 | 9.7 | 16.1 | 0.00 | 0.00 | 0.00 | 60 | |
| 20260507113302 | 13 | 173 | 9.7 | 16.1 | 0.00 | 0.00 | 0.00 | 60 | |
| 20260507113202 | 13 | 177 | 9.7 | 16.1 | 0.00 | 0.00 | 0.00 | 61 | |
| 20260507113102 | 13 | 181 | 11.3 | 17.7 | 0.00 | 0.00 | 0.00 | 61 | |
| 20260507113002 | 12 | 182 | 11.3 | 19.3 | 0.00 | 0.00 | 0.00 | 59 | |
| 20260507112902 | 12 | 184 | 11.3 | 19.3 | 0.00 | 0.00 | 0.00 | 60 | |
| 20260507112802 | 13 | 186 | 11.3 | 19.3 | 0.00 | 0.00 | 0.00 | 61 | |
| 20260507112723 | 12 | 185 | 12.9 | 19.3 | 0.00 | 0.00 | 0.00 | 60 | |
| 20260507112603 | 12 | 183 | 12.9 | 19.3 | 0.00 | 0.00 | 0.00 | 60 | |
| 20260507112502 | 12 | 182 | 12.9 | 19.3 | 0.00 | 0.00 | 0.00 | 61 | |
| 20260507112402 | 12 | 180 | 12.9 | 19.3 | 0.00 | 0.00 | 0.00 | 62 | |
| 20260507112306 | 12 | 179 | 12.9 | 19.3 | 0.00 | 0.00 | 0.00 | 61 | |
| 20260507112202 | 12 | 177 | 12.9 | 19.3 | 0.00 | 0.00 | 0.00 | 61 | |
| 20260507112102 | 12 | 174 | 12.9 | 19.3 | 0.00 | 0.00 | 0.00 | 60 | |
| 20260507112023 | 12 | 173 | 12.9 | 19.3 | 0.00 | 0.00 | 0.00 | 60 | |
| 20260507111902 | 12 | 176 | 12.9 | 19.3 | 0.00 | 0.00 | 0.00 | 60 | |
| 20260507111802 | 12 | 177 | 12.9 | 19.3 | 0.00 | 0.00 | 0.00 | 60 | |
| 20260507111723 | 12 | 178 | 11.3 | 19.3 | 0.00 | 0.00 | 0.00 | 60 | |
| 20260507111602 | 12 | 181 | 11.3 | 19.3 | 0.00 | 0.00 | 0.00 | 61 | |
| 20260507111503 | 12 | 186 | 11.3 | 19.3 | 0.00 | 0.00 | 0.00 | 61 | |
| 20260507111402 | 12 | 189 | 11.3 | 19.3 | 0.00 | 0.00 | 0.00 | 61 | |
| 20260507111302 | 12 | 189 | 11.3 | 19.3 | 0.00 | 0.00 | 0.00 | 62 | |
| 20260507111202 | 12 | 190 | 12.9 | 19.3 | 0.00 | 0.00 | 0.00 | 63 | |
| 20260507111102 | 13 | 192 | 12.9 | 19.3 | 0.00 | 0.00 | 0.00 | 63 | |
| 20260507111002 | 13 | 192 | 12.9 | 19.3 | 0.00 | 0.00 | 0.00 | 62 | |
| 20260507110923 | 13 | 192 | 11.3 | 19.3 | 0.00 | 0.00 | 0.00 | 62 | |
| 20260507110802 | 13 | 192 | 11.3 | 17.7 | 0.00 | 0.00 | 0.00 | 62 | |
| 20260507110723 | 13 | 194 | 11.3 | 17.7 | 0.00 | 0.00 | 0.00 | 63 | |
| 20260507110623 | 13 | 195 | 11.3 | 17.7 | 0.00 | 0.00 | 0.00 | 63 | |
| 20260507110502 | 13 | 192 | 11.3 | 17.7 | 0.00 | 0.00 | 0.00 | 63 | |
| 20260507110402 | 12 | 190 | 11.3 | 17.7 | 0.00 | 0.00 | 0.00 | 63 | |
| 20260507110302 | 12 | 190 | 11.3 | 16.1 | 0.00 | 0.00 | 0.00 | 62 | |
| 20260507110202 | 12 | 191 | 9.7 | 16.1 | 0.00 | 0.00 | 0.00 | 64 | |
| 20260507110002 | 12 | 187 | 11.3 | 19.3 | 0.00 | 0.00 | 0.00 | 64 | |
| 20260507105923 | 12 | 184 | 11.3 | 19.3 | 0.00 | 0.00 | 0.00 | 65 | |
| 20260507105802 | 12 | 181 | 11.3 | 19.3 | 0.00 | 0.00 | 0.00 | 65 | |
| 20260507105702 | 12 | 177 | 9.7 | 19.3 | 0.00 | 0.00 | 0.00 | 64 | |
| 20260507105602 | 12 | 174 | 9.7 | 19.3 | 0.00 | 0.00 | 0.00 | 64 | |
| 20260507105502 | 12 | 173 | 9.7 | 19.3 | 0.00 | 0.00 | 0.00 | 64 | |
| 20260507105402 | 12 | 175 | 8.0 | 19.3 | 0.00 | 0.00 | 0.00 | 64 | |
| 20260507105306 | 12 | 178 | 8.0 | 19.3 | 0.00 | 0.00 | 0.00 | 64 | |
| 20260507105202 | 12 | 179 | 8.0 | 19.3 | 0.00 | 0.00 | 0.00 | 64 | |
| 20260507105103 | 12 | 181 | 8.0 | 19.3 | 0.00 | 0.00 | 0.00 | 64 | |
| 20260507105003 | 12 | 186 | 8.0 | 19.3 | 0.00 | 0.00 | 0.00 | 65 | |
| 20260507104902 | 12 | 189 | 8.0 | 17.7 | 0.00 | 0.00 | 0.00 | 65 | |
| 20260507104802 | 12 | 191 | 8.0 | 14.5 | 0.00 | 0.00 | 0.00 | 65 | |
| 20260507104702 | 12 | 191 | 9.7 | 16.1 | 0.00 | 0.00 | 0.00 | 66 | |
| 20260507104602 | 12 | 195 | 9.7 | 19.3 | 0.00 | 0.00 | 0.00 | 66 | |
| 20260507104523 | 12 | 198 | 9.7 | 19.3 | 0.00 | 0.00 | 0.00 | 66 | |
| 20260507104402 | 12 | 198 | 9.7 | 19.3 | 0.00 | 0.00 | 0.00 | 67 | |
| 20260507104302 | 12 | 200 | 11.3 | 19.3 | 0.00 | 0.00 | 0.00 | 67 | |
| 20260507104202 | 12 | 200 | 11.3 | 19.3 | 0.00 | 0.00 | 0.00 | 67 | |
| 20260507104104 | 12 | 201 | 11.3 | 19.3 | 0.00 | 0.00 | 0.00 | 67 | |
| 20260507104003 | 12 | 201 | 11.3 | 19.3 | 0.00 | 0.00 | 0.00 | 66 | |
| 20260507103923 | 12 | 202 | 11.3 | 19.3 | 0.00 | 0.00 | 0.00 | 68 | |
| 20260507103802 | 12 | 203 | 11.3 | 19.3 | 0.00 | 0.00 | 0.00 | 67 | |
| 20260507103702 | 12 | 206 | 11.3 | 19.3 | 0.00 | 0.00 | 0.00 | 68 | |
| 20260507103602 | 12 | 205 | 0.0 | 16.1 | 0.00 | 0.00 | 0.00 | 68 | |
| 20260507103502 | 12 | 204 | 0.0 | 16.1 | 0.00 | 0.00 | 0.00 | 67 | |
| 20260507103402 | 12 | 206 | 0.0 | 16.1 | 0.00 | 0.00 | 0.00 | 67 | |
| 20260507103302 | 12 | 204 | 0.0 | 16.1 | 0.00 | 0.00 | 0.00 | 67 | |
| 20260507103202 | 12 | 205 | 0.0 | 16.1 | 0.00 | 0.00 | 0.00 | 67 | |
| 20260507103102 | 12 | 202 | 0.0 | 16.1 | 0.00 | 0.00 | 0.00 | 66 | |
| 20260507103002 | 12 | 200 | 0.0 | 16.1 | 0.00 | 0.00 | 0.00 | 67 | |
| 20260507102902 | 5 | 0 | 0.0 | 0.0 | 0.00 | 0.00 | 0.00 | 84 | |
| 20260507102802 | 5 | 0 | 0.0 | 0.0 | 0.00 | 0.00 | 0.00 | 84 | |
| 20260507102704 | 5 | 0 | 0.0 | 0.0 | 0.00 | 0.00 | 0.00 | 84 | |
| 20260507102623 | 5 | 0 | 0.0 | 0.0 | 0.00 | 0.00 | 0.00 | 84 | |
| 20260507102502 | 5 | 0 | 0.0 | 0.0 | 0.00 | 0.00 | 0.00 | 84 | |
| 20260507102402 | 5 | 0 | 0.0 | 0.0 | 0.00 | 0.00 | 0.00 | 84 | |
| 20260507102306 | 5 | 0 | 0.0 | 0.0 | 0.00 | 0.00 | 0.00 | 84 | |
| 20260507102223 | 5 | 0 | 0.0 | 0.0 | 0.00 | 0.00 | 0.00 | 84 | |
| 20260507102102 | 5 | 0 | 0.0 | 0.0 | 0.00 | 0.00 | 0.00 | 84 | |
| 20260507102023 | 5 | 0 | 0.0 | 0.0 | 0.00 | 0.00 | 0.00 | 84 | |
| 20260507101902 | 5 | 0 | 0.0 | 0.0 | 0.00 | 0.00 | 0.00 | 84 | |
| 20260507101802 | 5 | 0 | 0.0 | 0.0 | 0.00 | 0.00 | 0.00 | 84 | |
| 20260507101702 | 5 | 0 | 0.0 | 0.0 | 0.00 | 0.00 | 0.00 | 84 | |
| 20260507101602 | 5 | 0 | 0.0 | 0.0 | 0.00 | 0.00 | 0.00 | 84 | |
| 20260507101502 | 5 | 0 | 0.0 | 0.0 | 0.00 | 0.00 | 0.00 | 84 | |
| 20260507101402 | 5 | 0 | 0.0 | 0.0 | 0.00 | 0.00 | 0.00 | 84 | |
| 20260507101302 | 5 | 0 | 0.0 | 0.0 | 0.00 | 0.00 | 0.00 | 84 | |
| 20260507101223 | 5 | 0 | 0.0 | 0.0 | 0.00 | 0.00 | 0.00 | 84 | |
| 20260507101102 | 5 | 0 | 0.0 | 0.0 | 0.00 | 0.00 | 0.00 | 84 | |
| 20260507101002 | 5 | 0 | 0.0 | 0.0 | 0.00 | 0.00 | 0.00 | 84 |